EW6387 Weather Reports


time (UTC)temp
C
wind
direction
speed
KPH
gust
KPH
rain 1hr
cm
rain 24hr
cm
rain mn
cm
humidity
%
barometer
mb
20200803145509 22 311 6.4 16.1 0.00 0.00 0.00 42 1013.1
20200803145403 22 326 6.4 16.1 0.00 0.00 0.00 43 1013.1
20200803145256 22 347 4.8 16.1 0.00 0.00 0.00 43 1013.1
20200803145149 22 332 4.8 16.1 0.00 0.00 0.00 43 1013.1
20200803145041 22 325 4.8 16.1 0.00 0.00 0.00 44 1013.1
20200803144933 22 305 4.8 16.1 0.00 0.00 0.00 45 1013.1
20200803144828 22 347 4.8 16.1 0.00 0.00 0.00 44 1013.1
20200803144721 22 327 4.8 16.1 0.00 0.00 0.00 43 1013.1
20200803144615 22 324 4.8 16.1 0.00 0.00 0.00 44 1013.1
20200803144512 22 325 4.8 16.1 0.00 0.00 0.00 45 1013.2
20200803144405 22 320 4.8 16.1 0.00 0.00 0.00 45 1013.1
20200803144301 22 318 4.8 16.1 0.00 0.00 0.00 44 1013.0
20200803144157 22 318 4.8 16.1 0.00 0.00 0.00 44 1013.0
20200803144053 22 314 6.4 16.1 0.00 0.00 0.00 43 1013.1
20200803143949 22 314 6.4 20.9 0.00 0.00 0.00 44 1013.1
20200803143842 22 301 6.4 20.9 0.00 0.00 0.00 44 1013.1
20200803143737 22 313 4.8 20.9 0.00 0.00 0.00 44 1013.1
20200803143630 22 312 6.4 20.9 0.00 0.00 0.00 43 1013.1
20200803143527 22 303 6.4 20.9 0.00 0.00 0.00 42 1013.1
20200803143423 22 292 6.4 20.9 0.00 0.00 0.00 42 1013.1
20200803143320 22 287 6.4 20.9 0.00 0.00 0.00 42 1013.1
20200803143214 22 276 6.4 20.9 0.00 0.00 0.00 43 1013.1
20200803143108 22 280 6.4 20.9 0.00 0.00 0.00 45 1013.1
20200803143001 22 328 8.0 20.9 0.00 0.00 0.00 46 1013.1
20200803142853 22 0 8.0 20.9 0.00 0.00 0.00 44 1013.1
20200803142748 22 18 8.0 20.9 0.00 0.00 0.00 44 1013.1
20200803142641 22 332 8.0 20.9 0.00 0.00 0.00 45 1013.2
20200803142535 22 18 8.0 20.9 0.00 0.00 0.00 45 1013.1
20200803142429 22 341 8.0 20.9 0.00 0.00 0.00 44 1013.2
20200803142327 22 336 8.0 20.9 0.00 0.00 0.00 45 1013.2
20200803142225 22 330 8.0 20.9 0.00 0.00 0.00 45 1013.2
20200803142122 22 322 8.0 20.9 0.00 0.00 0.00 45 1013.2
20200803142019 22 331 8.0 20.9 0.00 0.00 0.00 45 1013.3
20200803141914 22 325 8.0 20.9 0.00 0.00 0.00 45 1013.3
20200803141810 22 333 6.4 20.9 0.00 0.00 0.00 45 1013.2
20200803141704 22 307 6.4 20.9 0.00 0.00 0.00 45 1013.2
20200803141600 22 304 6.4 20.9 0.00 0.00 0.00 45 1013.2
20200803141455 22 316 6.4 20.9 0.00 0.00 0.00 46 1013.3
20200803141347 22 0 6.4 20.9 0.00 0.00 0.00 46 1013.3
20200803141244 21 334 8.0 20.9 0.00 0.00 0.00 46 1013.2
20200803141136 21 334 8.0 20.9 0.00 0.00 0.00 46 1013.3
20200803141030 21 10 9.7 20.9 0.00 0.00 0.00 46 1013.3
20200803140923 21 37 9.7 20.9 0.00 0.00 0.00 45 1013.3
20200803140816 21 290 9.7 20.9 0.00 0.00 0.00 46 1013.3
20200803140712 21 325 9.7 20.9 0.00 0.00 0.00 46 1013.4
20200803140607 21 27 9.7 20.9 0.00 0.00 0.00 45 1013.4
20200803140500 21 334 8.0 20.9 0.00 0.00 0.00 44 1013.5
20200803140353 21 294 8.0 20.9 0.00 0.00 0.00 44 1013.4
20200803140248 21 307 6.4 20.9 0.00 0.00 0.00 44 1013.3
20200803140143 21 306 6.4 20.9 0.00 0.00 0.00 46 1013.3
20200803140036 21 311 6.4 16.1 0.00 0.00 0.00 47 1013.3
20200803135930 21 346 4.8 16.1 0.00 0.00 0.00 49 1013.3
20200803135825 21 314 6.4 22.5 0.00 0.00 0.00 47 1013.3
20200803135720 21 302 6.4 22.5 0.00 0.00 0.00 48 1013.3
20200803135617 21 309 6.4 22.5 0.00 0.00 0.00 49 1013.3
20200803135511 21 350 6.4 22.5 0.00 0.00 0.00 48 1013.4
20200803135406 21 347 8.0 22.5 0.00 0.00 0.00 48 1013.4
20200803135259 21 334 8.0 22.5 0.00 0.00 0.00 48 1013.4
20200803135152 21 301 9.7 22.5 0.00 0.00 0.00 48 1013.4
20200803135049 21 325 9.7 22.5 0.00 0.00 0.00 48 1013.4
20200803134942 21 304 9.7 22.5 0.00 0.00 0.00 49 1013.4
20200803134835 21 310 11.3 22.5 0.00 0.00 0.00 49 1013.4
20200803134731 21 318 9.7 22.5 0.00 0.00 0.00 50 1013.4
20200803134627 21 27 11.3 22.5 0.00 0.00 0.00 50 1013.4
20200803134525 21 351 9.7 22.5 0.00 0.00 0.00 48 1013.4
20200803134423 21 326 9.7 22.5 0.00 0.00 0.00 48 1013.4
20200803134319 21 343 9.7 22.5 0.00 0.00 0.00 48 1013.5
20200803134214 21 355 8.0 22.5 0.00 0.00 0.00 48 1013.5
20200803134111 21 318 8.0 22.5 0.00 0.00 0.00 48 1013.6
20200803134009 21 333 6.4 22.5 0.00 0.00 0.00 48 1013.5
20200803133907 21 315 6.4 22.5 0.00 0.00 0.00 48 1013.4
20200803133802 21 316 4.8 16.1 0.00 0.00 0.00 50 1013.5
20200803133656 21 330 4.8 16.1 0.00 0.00 0.00 48 1013.4
20200803133551 21 297 6.4 14.5 0.00 0.00 0.00 48 1013.4
20200803133447 21 318 6.4 14.5 0.00 0.00 0.00 49 1013.4
20200803133339 21 325 6.4 14.5 0.00 0.00 0.00 50 1013.3
20200803133235 21 325 6.4 14.5 0.00 0.00 0.00 49 1013.4
20200803133128 21 0 6.4 17.7 0.00 0.00 0.00 48 1013.4
20200803133021 21 322 8.0 17.7 0.00 0.00 0.00 48 1013.4
20200803132919 21 330 8.0 17.7 0.00 0.00 0.00 48 1013.4
20200803132814 21 345 8.0 17.7 0.00 0.00 0.00 48 1013.4
20200803132707 21 315 8.0 17.7 0.00 0.00 0.00 49 1013.4
20200803132600 21 330 6.4 17.7 0.00 0.00 0.00 48 1013.4
20200803132456 21 291 6.4 17.7 0.00 0.00 0.00 49 1013.4
20200803132352 21 314 6.4 17.7 0.00 0.00 0.00 49 1013.4
20200803132247 21 18 6.4 17.7 0.00 0.00 0.00 49 1013.4
20200803132145 21 10 8.0 17.7 0.00 0.00 0.00 50 1013.4
20200803132038 21 323 8.0 17.7 0.00 0.00 0.00 49 1013.4
20200803131934 21 351 8.0 17.7 0.00 0.00 0.00 49 1013.4
20200803131827 21 23 8.0 17.7 0.00 0.00 0.00 48 1013.4
20200803131720 21 313 8.0 17.7 0.00 0.00 0.00 48 1013.4
20200803131618 21 328 6.4 17.7 0.00 0.00 0.00 48 1013.5
20200803131512 21 335 8.0 17.7 0.00 0.00 0.00 47 1013.5
20200803131405 21 10 6.4 17.7 0.00 0.00 0.00 46 1013.5
20200803131301 21 316 6.4 17.7 0.00 0.00 0.00 46 1013.5
20200803131157 21 315 4.8 17.7 0.00 0.00 0.00 46 1013.5
20200803131049 21 319 4.8 16.1 0.00 0.00 0.00 46 1013.4
20200803130943 21 345 4.8 16.1 0.00 0.00 0.00 46 1013.4
20200803130841 21 320 3.2 16.1 0.00 0.00 0.00 46 1013.4
20200803130739 21 328 3.2 16.1 0.00 0.00 0.00 46 1013.4
20200803130632 21 348 3.2 16.1 0.00 0.00 0.00 47 1013.4
20200803130527 21 0 3.2 16.1 0.00 0.00 0.00 49 1013.4
20200803130422 21 10 3.2 11.3 0.00 0.00 0.00 49 1013.5
20200803130319 21 19 3.2 11.3 0.00 0.00 0.00 49 1013.4
20200803130212 21 14 3.2 17.7 0.00 0.00 0.00 49 1013.3
20200803130109 21 14 4.8 17.7 0.00 0.00 0.00 49 1013.4
20200803130002 21 328 4.8 17.7 0.00 0.00 0.00 48 1013.4
20200803125859 21 29 6.4 17.7 0.00 0.00 0.00 49 1013.4
20200803125751 21 35 6.4 17.7 0.00 0.00 0.00 49 1013.4
20200803125646 21 10 6.4 17.7 0.00 0.00 0.00 50 1013.4
20200803125541 21 10 6.4 17.7 0.00 0.00 0.00 50 1013.5
20200803125437 21 41 6.4 17.7 0.00 0.00 0.00 51 1013.5
20200803125333 21 323 6.4 17.7 0.00 0.00 0.00 50 1013.5
20200803125228 21 296 6.4 17.7 0.00 0.00 0.00 50 1013.5
20200803125122 21 326 6.4 17.7 0.00 0.00 0.00 50 1013.5
20200803125017 21 314 6.4 17.7 0.00 0.00 0.00 50 1013.6
20200803124915 21 341 6.4 17.7 0.00 0.00 0.00 50 1013.6
20200803124810 21 0 6.4 17.7 0.00 0.00 0.00 50 1013.6
20200803124706 21 330 6.4 17.7 0.00 0.00 0.00 50 1013.6
20200803124603 21 320 6.4 17.7 0.00 0.00 0.00 50 1013.7
20200803124458 21 319 6.4 17.7 0.00 0.00 0.00 50 1013.7
20200803124356 21 303 6.4 17.7 0.00 0.00 0.00 50 1013.6
20200803124249 21 0 6.4 17.7 0.00 0.00 0.00 50 1013.7
20200803124145 21 306 6.4 16.1 0.00 0.00 0.00 50 1013.7
20200803124038 21 326 6.4 16.1 0.00 0.00 0.00 50 1013.7
20200803123932 21 321 8.0 19.3 0.00 0.00 0.00 50 1013.7
20200803123825 21 325 8.0 19.3 0.00 0.00 0.00 50 1013.6
20200803123720 21 334 8.0 19.3 0.00 0.00 0.00 50 1013.6
20200803123614 21 341 8.0 19.3 0.00 0.00 0.00 51 1013.7
20200803123510 21 320 8.0 19.3 0.00 0.00 0.00 51 1013.6
20200803123403 20 317 8.0 19.3 0.00 0.00 0.00 50 1013.7
20200803123257 20 312 8.0 19.3 0.00 0.00 0.00 50 1013.6
20200803123152 20 353 8.0 19.3 0.00 0.00 0.00 50 1013.6
20200803123044 20 318 9.7 19.3 0.00 0.00 0.00 50 1013.7
20200803122938 20 309 9.7 19.3 0.00 0.00 0.00 50 1013.6
20200803122836 20 307 8.0 19.3 0.00 0.00 0.00 49 1013.6
20200803122732 20 306 8.0 19.3 0.00 0.00 0.00 48 1013.7
20200803122627 20 305 8.0 19.3 0.00 0.00 0.00 48 1013.7
20200803122525 20 278 8.0 19.3 0.00 0.00 0.00 48 1013.7
20200803122419 21 332 8.0 19.3 0.00 0.00 0.00 48 1013.7
20200803122317 21 338 6.4 19.3 0.00 0.00 0.00 48 1013.7
20200803122213 21 329 6.4 19.3 0.00 0.00 0.00 48 1013.7
20200803122105 21 302 4.8 19.3 0.00 0.00 0.00 48 1013.7
20200803122000 21 326 4.8 19.3 0.00 0.00 0.00 50 1013.7
20200803121854 21 37 4.8 12.9 0.00 0.00 0.00 49 1013.7
20200803121750 21 280 3.2 12.9 0.00 0.00 0.00 49 1013.6
20200803121646 21 314 3.2 12.9 0.00 0.00 0.00 49 1013.7
20200803121542 21 314 3.2 12.9 0.00 0.00 0.00 48 1013.7
20200803121440 21 259 3.2 12.9 0.00 0.00 0.00 50 1013.7
20200803121334 21 318 4.8 11.3 0.00 0.00 0.00 49 1013.6
20200803121227 21 320 4.8 22.5 0.00 0.00 0.00 49 1013.7
20200803121125 21 267 4.8 22.5 0.00 0.00 0.00 51 1013.7
20200803121021 21 282 4.8 22.5 0.00 0.00 0.00 50 1013.7
20200803120919 21 284 6.4 22.5 0.00 0.00 0.00 51 1013.7
20200803120814 21 318 6.4 22.5 0.00 0.00 0.00 50 1013.7
20200803120705 21 313 8.0 22.5 0.00 0.00 0.00 50 1013.7
20200803120558 21 284 8.0 22.5 0.00 0.00 0.00 49 1013.7
20200803120454 21 304 8.0 22.5 0.00 0.00 0.00 49 1013.7
20200803120347 21 312 8.0 22.5 0.00 0.00 0.00 49 1013.7
20200803120244 21 312 9.7 22.5 0.00 0.00 0.00 50 1013.8
20200803120139 21 332 9.7 22.5 0.00 0.00 0.00 50 1013.7
20200803120033 21 15 9.7 22.5 0.00 0.00 0.00 49 1013.8
20200803115928 21 321 9.7 22.5 0.00 0.00 0.00 50 1013.7
20200803115824 21 320 8.0 22.5 0.00 0.00 0.00 49 1013.8
20200803115717 21 334 8.0 22.5 0.00 0.00 0.00 50 1013.8
20200803115615 21 339 8.0 22.5 0.00 0.00 0.00 50 1013.8
20200803115511 21 316 8.0 22.5 0.00 0.00 0.00 49 1013.7
20200803115406 21 316 8.0 22.5 0.00 0.00 0.00 49 1013.7
20200803115301 21 319 4.8 22.5 0.00 0.00 0.00 48 1013.6
20200803115158 21 308 4.8 17.7 0.00 0.00 0.00 48 1013.7
20200803115055 22 313 4.8 17.7 0.00 0.00 0.00 49 1013.7
20200803114952 22 315 4.8 17.7 0.00 0.00 0.00 48 1013.7
20200803114847 21 297 4.8 17.7 0.00 0.00 0.00 48 1013.7
20200803114741 21 313 4.8 17.7 0.00 0.00 0.00 49 1013.8
20200803114638 21 314 3.2 14.5 0.00 0.00 0.00 48 1013.7
20200803114534 21 302 4.8 14.5 0.00 0.00 0.00 48 1013.7
20200803114426 21 278 4.8 22.5 0.00 0.00 0.00 48 1013.7
20200803114323 21 323 4.8 22.5 0.00 0.00 0.00 50 1013.7
20200803114217 21 329 6.4 22.5 0.00 0.00 0.00 50 1013.7
20200803114111 21 310 6.4 22.5 0.00 0.00 0.00 52 1013.7
20200803114006 21 331 8.0 22.5 0.00 0.00 0.00 49 1013.7
20200803113856 21 289 8.0 22.5 0.00 0.00 0.00 48 1013.7
20200803113754 21 316 8.0 22.5 0.00 0.00 0.00 47 1013.7
20200803113651 21 328 9.7 22.5 0.00 0.00 0.00 47 1013.7
20200803113543 21 341 9.7 22.5 0.00 0.00 0.00 47 1013.7
20200803113443 21 314 9.7 22.5 0.00 0.00 0.00 47 1013.7
20200803113328 22 307 9.7 22.5 0.00 0.00 0.00 46 1013.7
20200803113224 22 326 9.7 22.5 0.00 0.00 0.00 46 1013.7
20200803113117 22 284 8.0 22.5 0.00 0.00 0.00 46 1013.7
20200803113013 22 282 8.0 22.5 0.00 0.00 0.00 47 1013.7
20200803112907 22 310 8.0 22.5 0.00 0.00 0.00 47 1013.7
20200803112802 22 305 8.0 22.5 0.00 0.00 0.00 47 1013.6
20200803112656 22 309 8.0 22.5 0.00 0.00 0.00 46 1013.7
20200803112551 22 300 8.0 22.5 0.00 0.00 0.00 47 1013.7
20200803112444 22 318 8.0 19.3 0.00 0.00 0.00 47 1013.7
20200803112341 23 333 8.0 19.3 0.00 0.00 0.00 46 1013.6
20200803112234 23 289 8.0 19.3 0.00 0.00 0.00 46 1013.6
20200803112130 23 318 8.0 19.3 0.00 0.00 0.00 46 1013.6
20200803112028 23 27 8.0 19.3 0.00 0.00 0.00 47 1013.6
20200803111921 23 337 8.0 19.3 0.00 0.00 0.00 47 1013.6
20200803111818 22 317 8.0 19.3 0.00 0.00 0.00 48 1013.6
20200803111712 22 317 6.4 19.3 0.00 0.00 0.00 49 1013.6
20200803111606 22 35 9.7 19.3 0.00 0.00 0.00 48 1013.6
20200803111459 22 326 9.7 19.3 0.00 0.00 0.00 49 1013.6
20200803111354 22 336 9.7 22.5 0.00 0.00 0.00 48 1013.7
20200803111251 22 320 9.7 22.5 0.00 0.00 0.00 49 1013.6
20200803111143 22 351 9.7 22.5 0.00 0.00 0.00 48 1013.6
20200803111038 22 323 9.7 22.5 0.00 0.00 0.00 50 1013.6
20200803110936 22 348 8.0 22.5 0.00 0.00 0.00 49 1013.6
20200803110834 22 320 8.0 22.5 0.00 0.00 0.00 49 1013.6
20200803110730 22 316 8.0 22.5 0.00 0.00 0.00 50 1013.6
20200803110623 22 330 8.0 22.5 0.00 0.00 0.00 50 1013.6
20200803110515 22 330 8.0 22.5 0.00 0.00 0.00 51 1013.6
20200803110411 22 320 8.0 22.5 0.00 0.00 0.00 52 1013.6
20200803110306 22 296 8.0 22.5 0.00 0.00 0.00 52 1013.6
20200803110202 21 0 8.0 22.5 0.00 0.00 0.00 52 1013.6
20200803110057 21 303 8.0 22.5 0.00 0.00 0.00 52 1013.5
20200803105950 21 347 9.7 22.5 0.00 0.00 0.00 51 1013.5
20200803105837 21 345 9.7 22.5 0.00 0.00 0.00 52 1013.6
20200803105729 21 312 8.0 22.5 0.00 0.00 0.00 53 1013.6
20200803105624 21 322 8.0 22.5 0.00 0.00 0.00 53 1013.6
20200803105520 21 341 8.0 22.5 0.00 0.00 0.00 53 1013.6
20200803105418 21 332 6.4 20.9 0.00 0.00 0.00 52 1013.6
20200803105313 21 341 6.4 20.9 0.00 0.00 0.00 52 1013.6
20200803105208 21 315 6.4 19.3 0.00 0.00 0.00 54 1013.7
20200803105104 21 338 6.4 19.3 0.00 0.00 0.00 54 1013.7
20200803104959 21 354 8.0 19.3 0.00 0.00 0.00 53 1013.6
20200803104854 21 305 8.0 19.3 0.00 0.00 0.00 53 1013.7
20200803104749 21 328 8.0 19.3 0.00 0.00 0.00 53 1013.6
20200803104642 20 10 9.7 19.3 0.00 0.00 0.00 53 1013.7
20200803104539 20 314 9.7 19.3 0.00 0.00 0.00 54 1013.7
20200803104436 20 320 9.7 19.3 0.00 0.00 0.00 53 1013.7
20200803104334 20 309 9.7 19.3 0.00 0.00 0.00 52 1013.7
20200803104230 20 307 9.7 19.3 0.00 0.00 0.00 52 1013.8
20200803104125 21 339 8.0 19.3 0.00 0.00 0.00 52 1013.8
20200803104021 21 300 8.0 19.3 0.00 0.00 0.00 52 1013.8
20200803103916 21 320 8.0 19.3 0.00 0.00 0.00 53 1013.8
20200803103813 21 332 8.0 19.3 0.00 0.00 0.00 52 1013.8
20200803103706 21 298 8.0 19.3 0.00 0.00 0.00 53 1013.8
20200803103603 21 326 8.0 19.3 0.00 0.00 0.00 53 1013.7
20200803103454 21 332 8.0 19.3 0.00 0.00 0.00 53 1013.8
20200803103346 21 45 8.0 19.3 0.00 0.00 0.00 53 1013.7
20200803103242 21 351 8.0 19.3 0.00 0.00 0.00 53 1013.8
20200803103138 21 27 8.0 19.3 0.00 0.00 0.00 53 1013.8
20200803103034 21 341 8.0 19.3 0.00 0.00 0.00 52 1013.8
20200803102929 21 299 6.4 19.3 0.00 0.00 0.00 53 1013.8
20200803102821 21 314 6.4 17.7 0.00 0.00 0.00 52 1013.8
20200803102714 21 330 6.4 17.7 0.00 0.00 0.00 52 1013.8
20200803102608 21 305 6.4 17.7 0.00 0.00 0.00 53 1013.8
20200803102501 21 324 6.4 17.7 0.00 0.00 0.00 53 1013.7
20200803102356 21 324 6.4 17.7 0.00 0.00 0.00 54 1013.7
20200803102248 21 310 4.8 20.9 0.00 0.00 0.00 55 1013.7
20200803102143 21 23 6.4 20.9 0.00 0.00 0.00 55 1013.8
20200803102035 21 312 6.4 20.9 0.00 0.00 0.00 55 1013.7
20200803101931 21 355 6.4 20.9 0.00 0.00 0.00 55 1013.7
20200803101823 20 308 6.4 20.9 0.00 0.00 0.00 54 1013.7
20200803101718 20 271 6.4 20.9 0.00 0.00 0.00 55 1013.7
20200803101612 20 355 6.4 20.9 0.00 0.00 0.00 55 1013.7
20200803101507 20 315 6.4 20.9 0.00 0.00 0.00 54 1013.7
20200803101403 20 316 8.0 20.9 0.00 0.00 0.00 55 1013.8
20200803101256 20 329 9.7 20.9 0.00 0.00 0.00 54 1013.8
20200803101153 20 334 9.7 20.9 0.00 0.00 0.00 56 1013.8
20200803101046 20 323 9.7 20.9 0.00 0.00 0.00 56 1013.8
20200803100940 20 326 9.7 20.9 0.00 0.00 0.00 55 1013.9
20200803100835 20 311 9.7 20.9 0.00 0.00 0.00 54 1013.8
20200803100729 21 305 8.0 20.9 0.00 0.00 0.00 54 1013.9
20200803100620 21 302 8.0 20.9 0.00 0.00 0.00 53 1013.9
20200803100518 21 295 8.0 20.9 0.00 0.00 0.00 53 1013.8
20200803100415 21 303 8.0 20.9 0.00 0.00 0.00 53 1013.8
20200803100310 21 311 6.4 20.9 0.00 0.00 0.00 54 1013.8
20200803100203 21 296 6.4 19.3 0.00 0.00 0.00 54 1013.8
20200803100058 21 324 4.8 19.3 0.00 0.00 0.00 54 1013.8
20200803095956 21 349 4.8 19.3 0.00 0.00 0.00 55 1013.8
20200803095850 21 333 4.8 19.3 0.00 0.00 0.00 55 1013.8
20200803095744 21 24 4.8 19.3 0.00 0.00 0.00 54 1013.8
20200803095639 21 43 4.8 19.3 0.00 0.00 0.00 54 1013.8
20200803095536 21 302 4.8 19.3 0.00 0.00 0.00 54 1013.8
20200803095434 21 330 6.4 19.3 0.00 0.00 0.00 55 1013.8
20200803095328 21 320 6.4 19.3 0.00 0.00 0.00 54 1013.8
20200803095223 21 56 6.4 19.3 0.00 0.00 0.00 54 1013.8
20200803095116 21 312 6.4 19.3 0.00 0.00 0.00 55 1013.8
20200803095015 21 318 6.4 19.3 0.00 0.00 0.00 56 1013.8
20200803094911 21 347 6.4 19.3 0.00 0.00 0.00 55 1013.8
20200803094805 21 349 6.4 19.3 0.00 0.00 0.00 54 1013.8
20200803094701 21 314 6.4 19.3 0.00 0.00 0.00 55 1013.8
20200803094556 21 334 6.4 19.3 0.00 0.00 0.00 55 1013.9
20200803094451 20 332 6.4 19.3 0.00 0.00 0.00 55 1013.8
20200803094347 20 325 4.8 19.3 0.00 0.00 0.00 56 1013.9
20200803094243 20 322 4.8 19.3 0.00 0.00 0.00 57 1013.8
20200803094137 20 307 4.8 19.3 0.00 0.00 0.00 57 1013.8
20200803094035 20 334 6.4 19.3 0.00 0.00 0.00 57 1013.8
20200803093928 20 314 6.4 19.3 0.00 0.00 0.00 58 1013.8
20200803093821 20 343 6.4 19.3 0.00 0.00 0.00 57 1013.8
20200803093719 20 54 6.4 19.3 0.00 0.00 0.00 57 1013.9
20200803093615 20 300 8.0 19.3 0.00 0.00 0.00 57 1013.9
20200803093508 20 0 8.0 19.3 0.00 0.00 0.00 57 1013.9
20200803093401 20 322 8.0 19.3 0.00 0.00 0.00 57 1013.9
20200803093256 20 342 8.0 19.3 0.00 0.00 0.00 56 1013.9
20200803093148 20 320 8.0 19.3 0.00 0.00 0.00 56 1013.9
20200803093041 20 293 8.0 19.3 0.00 0.00 0.00 56 1013.9
20200803092939 20 336 8.0 19.3 0.00 0.00 0.00 57 1013.9
20200803092833 20 336 8.0 19.3 0.00 0.00 0.00 57 1013.9
20200803092728 20 317 8.0 19.3 0.00 0.00 0.00 57 1013.9
20200803092622 20 20 6.4 19.3 0.00 0.00 0.00 57 1013.9
20200803092519 20 16 6.4 16.1 0.00 0.00 0.00 57 1013.9
20200803092417 20 320 6.4 16.1 0.00 0.00 0.00 58 1013.9
20200803092310 20 350 6.4 16.1 0.00 0.00 0.00 58 1013.9
20200803092203 20 324 4.8 16.1 0.00 0.00 0.00 58 1013.9
20200803092056 19 296 4.8 16.1 0.00 0.00 0.00 58 1013.9
20200803091950 19 322 4.8 16.1 0.00 0.00 0.00 59 1013.9
20200803091843 19 316 4.8 16.1 0.00 0.00 0.00 59 1013.9
20200803091742 19 306 6.4 16.1 0.00 0.00 0.00 59 1013.9
20200803091633 19 284 6.4 22.5 0.00 0.00 0.00 59 1013.9
20200803091527 19 334 6.4 22.5 0.00 0.00 0.00 60 1013.9
20200803091420 19 43 6.4 22.5 0.00 0.00 0.00 61 1013.9
20200803091313 19 297 6.4 22.5 0.00 0.00 0.00 61 1013.9
20200803091209 19 351 6.4 22.5 0.00 0.00 0.00 61 1014.0
20200803091107 18 306 6.4 22.5 0.00 0.00 0.00 61 1013.9
20200803091004 18 317 6.4 22.5 0.00 0.00 0.00 61 1013.9
20200803090901 18 0 6.4 22.5 0.00 0.00 0.00 61 1013.9
20200803090756 18 314 4.8 22.5 0.00 0.00 0.00 61 1013.9
20200803090654 18 322 6.4 22.5 0.00 0.00 0.00 61 1013.9
20200803090546 18 319 6.4 22.5 0.00 0.00 0.00 62 1013.9
20200803090443 18 326 6.4 22.5 0.00 0.00 0.00 62 1013.9
20200803090337 18 324 6.4 22.5 0.00 0.00 0.00 62 1013.9
20200803090233 18 27 6.4 22.5 0.00 0.00 0.00 61 1013.9
20200803090129 18 29 6.4 22.5 0.00 0.00 0.00 61 1013.9
20200803090024 18 320 8.0 22.5 0.00 0.00 0.00 61 1013.9
20200803085920 18 35 8.0 22.5 0.00 0.00 0.00 62 1013.9
20200803085815 18 338 8.0 22.5 0.00 0.00 0.00 62 1013.9
20200803085711 18 330 6.4 19.3 0.00 0.00 0.00 62 1013.9
20200803085604 18 311 6.4 22.5 0.00 0.00 0.00 62 1013.9
20200803085500 18 320 6.4 22.5 0.00 0.00 0.00 62 1013.8
20200803085354 18 325 6.4 22.5 0.00 0.00 0.00 63 1013.9
20200803085246 17 320 6.4 22.5 0.00 0.00 0.00 63 1013.8
20200803085138 17 348 6.4 22.5 0.00 0.00 0.00 63 1013.8
20200803085036 17 314 4.8 22.5 0.00 0.00 0.00 63 1013.8
20200803084929 17 290 4.8 22.5 0.00 0.00 0.00 64 1013.8
20200803084823 17 24 4.8 22.5 0.00 0.00 0.00 64 1013.8
20200803084718 17 352 6.4 22.5 0.00 0.00 0.00 63 1013.8
20200803084613 17 315 6.4 22.5 0.00 0.00 0.00 63 1013.8
20200803084508 17 311 6.4 22.5 0.00 0.00 0.00 64 1013.8
20200803084405 17 314 6.4 22.5 0.00 0.00 0.00 64 1013.8
20200803084259 17 306 8.0 22.5 0.00 0.00 0.00 64 1013.8
20200803084151 17 342 8.0 22.5 0.00 0.00 0.00 64 1013.8
20200803084049 17 311 8.0 22.5 0.00 0.00 0.00 64 1013.8
20200803083945 17 319 8.0 22.5 0.00 0.00 0.00 64 1013.8
20200803083840 17 319 6.4 22.5 0.00 0.00 0.00 64 1013.8
20200803083737 17 32 8.0 22.5 0.00 0.00 0.00 64 1013.8
20200803083635 17 0 6.4 22.5 0.00 0.00 0.00 64 1013.8
20200803083531 17 322 6.4 16.1 0.00 0.00 0.00 64 1013.8
20200803083424 17 278 6.4 16.1 0.00 0.00 0.00 64 1013.8
20200803083317 17 35 6.4 16.1 0.00 0.00 0.00 64 1013.8
20200803083211 17 10 6.4 16.1 0.00 0.00 0.00 64 1013.8
20200803083104 17 5 6.4 16.1 0.00 0.00 0.00 64 1013.8
20200803083001 17 314 6.4 16.1 0.00 0.00 0.00 65 1013.8
20200803082854 17 55 6.4 16.1 0.00 0.00 0.00 64 1013.8
20200803082747 17 328 6.4 16.1 0.00 0.00 0.00 64 1013.8
20200803082640 16 306 6.4 24.1 0.00 0.00 0.00 64 1013.8
20200803082535 16 10 6.4 24.1 0.00 0.00 0.00 64 1013.8
20200803082431 16 348 6.4 24.1 0.00 0.00 0.00 64 1013.7
20200803082326 16 0 6.4 24.1 0.00 0.00 0.00 64 1013.7
20200803082222 16 324 6.4 24.1 0.00 0.00 0.00 64 1013.7
20200803082117 16 28 6.4 24.1 0.00 0.00 0.00 64 1013.7
20200803082013 16 305 6.4 24.1 0.00 0.00 0.00 64 1013.7
20200803081909 16 339 6.4 24.1 0.00 0.00 0.00 64 1013.7
20200803081807 16 338 6.4 24.1 0.00 0.00 0.00 64 1013.7
20200803081704 16 347 8.0 24.1 0.00 0.00 0.00 64 1013.7
20200803081600 16 336 8.0 24.1 0.00 0.00 0.00 64 1013.7
20200803081454 16 353 8.0 24.1 0.00 0.00 0.00 65 1013.7
20200803081347 16 10 8.0 24.1 0.00 0.00 0.00 65 1013.7
20200803081245 16 351 8.0 24.1 0.00 0.00 0.00 65 1013.7
20200803081142 16 322 8.0 24.1 0.00 0.00 0.00 65 1013.7
20200803081039 16 0 8.0 24.1 0.00 0.00 0.00 65 1013.7
20200803080936 16 321 8.0 24.1 0.00 0.00 0.00 65 1013.7
20200803080831 16 25 8.0 24.1 0.00 0.00 0.00 65 1013.8
20200803080727 16 0 6.4 24.1 0.00 0.00 0.00 66 1013.8
20200803080623 16 314 6.4 19.3 0.00 0.00 0.00 67 1013.7
20200803080520 16 305 4.8 19.3 0.00 0.00 0.00 67 1013.7
20200803080416 16 318 4.8 19.3 0.00 0.00 0.00 67 1013.7
20200803080312 16 331 3.2 19.3 0.00 0.00 0.00 67 1013.8
20200803080208 16 316 3.2 19.3 0.00 0.00 0.00 68 1013.8
20200803080103 16 0 3.2 14.5 0.00 0.00 0.00 69 1013.8
20200803075957 16 348 3.2 14.5 0.00 0.00 0.00 69 1013.7
20200803075853 16 318 4.8 4.8 0.00 0.00 0.00 69 1013.8
20200803075746 16 31 4.8 4.8 0.00 0.00 0.00 69 1013.7
20200803075639 16 38 6.4 0.0 0.00 0.00 0.00 69 1013.7
20200803075535 16 35 6.4 22.5 0.00 0.00 0.00 69 1013.8
20200803075431 16 51 6.4 22.5 0.00 0.00 0.00 68 1013.7
20200803075327 15 36 8.0 22.5 0.00 0.00 0.00 68 1013.7
20200803075220 15 323 6.4 22.5 0.00 0.00 0.00 69 1013.7
20200803075116 15 323 6.4 22.5 0.00 0.00 0.00 69 1013.7
20200803075011 15 331 6.4 22.5 0.00 0.00 0.00 69 1013.7
20200803074905 15 328 6.4 22.5 0.00 0.00 0.00 69 1013.7
20200803074801 15 313 4.8 22.5 0.00 0.00 0.00 69 1013.6
20200803074654 15 335 4.8 14.5 0.00 0.00 0.00 69 1013.7
20200803074546 15 318 4.8 14.5 0.00 0.00 0.00 70 1013.7
20200803074439 15 19 4.8 14.5 0.00 0.00 0.00 70 1013.7
20200803074335 15 18 4.8 14.5 0.00 0.00 0.00 70 1013.7
20200803074232 15 343 4.8 14.5 0.00 0.00 0.00 70 1013.7
20200803074125 15 16 3.2 14.5 0.00 0.00 0.00 70 1013.7
20200803074017 15 341 3.2 12.9 0.00 0.00 0.00 71 1013.7
20200803073914 15 324 3.2 12.9 0.00 0.00 0.00 71 1013.7
20200803073810 15 60 3.2 12.9 0.00 0.00 0.00 71 1013.7
20200803073702 15 38 1.6 12.9 0.00 0.00 0.00 72 1013.7
20200803073558 15 324 3.2 12.9 0.00 0.00 0.00 72 1013.7
20200803073451 15 17 3.2 12.9 0.00 0.00 0.00 72 1013.7
20200803073344 15 17 3.2 12.9 0.00 0.00 0.00 72 1013.6
20200803073241 15 322 3.2 12.9 0.00 0.00 0.00 72 1013.6
20200803073133 15 349 3.2 16.1 0.00 0.00 0.00 72 1013.6
20200803073029 15 313 4.8 16.1 0.00 0.00 0.00 72 1013.6
20200803072925 15 314 4.8 16.1 0.00 0.00 0.00 72 1013.7
20200803072819 15 10 4.8 16.1 0.00 0.00 0.00 72 1013.7
20200803072717 15 332 4.8 16.1 0.00 0.00 0.00 72 1013.6
20200803072609 15 308 4.8 16.1 0.00 0.00 0.00 72 1013.6
20200803072505 15 320 4.8 16.1 0.00 0.00 0.00 72 1013.6
20200803072401 15 331 4.8 16.1 0.00 0.00 0.00 71 1013.6
20200803072254 15 325 6.4 16.1 0.00 0.00 0.00 71 1013.6
20200803072152 15 332 6.4 16.1 0.00 0.00 0.00 71 1013.7
20200803072047 15 338 6.4 16.1 0.00 0.00 0.00 71 1013.6
20200803071942 15 310 6.4 16.1 0.00 0.00 0.00 71 1013.6
20200803071835 15 349 6.4 16.1 0.00 0.00 0.00 71 1013.6
20200803071733 15 347 8.0 16.1 0.00 0.00 0.00 71 1013.7
20200803071627 15 356 8.0 16.1 0.00 0.00 0.00 71 1013.6
20200803071519 15 343 8.0 16.1 0.00 0.00 0.00 71 1013.7
20200803071416 15 333 8.0 16.1 0.00 0.00 0.00 71 1013.7
20200803071311 15 339 6.4 16.1 0.00 0.00 0.00 71 1013.7
20200803071208 15 335 6.4 16.1 0.00 0.00 0.00 71 1013.7
20200803071106 15 320 6.4 16.1 0.00 0.00 0.00 71 1013.6
20200803071000 15 310 4.8 16.1 0.00 0.00 0.00 71 1013.6
20200803070853 15 324 4.8 16.1 0.00 0.00 0.00 71 1013.5
20200803070745 15 324 4.8 16.1 0.00 0.00 0.00 71 1013.5
20200803070639 15 320 3.2 16.1 0.00 0.00 0.00 72 1013.5
20200803070535 15 345 3.2 16.1 0.00 0.00 0.00 72 1013.5
20200803070426 15 350 3.2 16.1 0.00 0.00 0.00 72 1013.5
20200803070320 15 349 3.2 16.1 0.00 0.00 0.00 72 1013.5
20200803070213 15 348 3.2 16.1 0.00 0.00 0.00 73 1013.5
20200803070107 15 70 4.8 16.1 0.00 0.00 0.00 73 1013.5
20200803070004 15 338 4.8 16.1 0.00 0.00 0.00 73 1013.5
20200803065900 15 322 3.2 16.1 0.00 0.00 0.00 72 1013.5
20200803065757 15 333 4.8 16.1 0.00 0.00 0.00 72 1013.5
20200803065653 15 343 4.8 16.1 0.00 0.00 0.00 72 1013.5
20200803065550 15 345 4.8 16.1 0.00 0.00 0.00 72 1013.6
20200803065443 15 349 4.8 16.1 0.00 0.00 0.00 73 1013.5
20200803065338 15 347 4.8 16.1 0.00 0.00 0.00 73 1013.5
20200803065233 15 321 4.8 12.9 0.00 0.00 0.00 73 1013.4
20200803065128 15 316 4.8 14.5 0.00 0.00 0.00 73 1013.5
20200803065024 15 0 4.8 14.5 0.00 0.00 0.00 74 1013.4
20200803064920 15 350 4.8 14.5 0.00 0.00 0.00 74 1013.4
20200803064815 15 19 4.8 14.5 0.00 0.00 0.00 74 1013.4
20200803064710 15 10 4.8 14.5 0.00 0.00 0.00 75 1013.4
20200803064606 15 346 4.8 14.5 0.00 0.00 0.00 75 1013.4
20200803064458 15 325 4.8 14.5 0.00 0.00 0.00 76 1013.4
20200803064351 14 321 4.8 14.5 0.00 0.00 0.00 76 1013.4
20200803064246 14 318 4.8 14.5 0.00 0.00 0.00 76 1013.4
20200803064141 14 326 4.8 14.5 0.00 0.00 0.00 76 1013.4
20200803064037 14 347 4.8 14.5 0.00 0.00 0.00 77 1013.4
20200803063934 14 326 3.2 14.5 0.00 0.00 0.00 77 1013.4
20200803063827 14 339 3.2 14.5 0.00 0.00 0.00 77 1013.4
20200803063729 14 311 3.2 14.5 0.00 0.00 0.00 78 1013.3
20200803063620 14 16 3.2 14.5 0.00 0.00 0.00 78 1013.4
20200803063515 14 312 3.2 14.5 0.00 0.00 0.00 78 1013.3
20200803063409 14 10 3.2 14.5 0.00 0.00 0.00 78 1013.3
20200803063302 13 331 3.2 14.5 0.00 0.00 0.00 78 1013.3
20200803063156 13 38 3.2 14.5 0.00 0.00 0.00 79 1013.3
20200803063051 13 321 3.2 12.9 0.00 0.00 0.00 79 1013.3
20200803062949 13 330 3.2 12.9 0.00 0.00 0.00 79 1013.3
20200803062842 13 322 3.2 12.9 0.00 0.00 0.00 79 1013.4
20200803062739 13 323 3.2 12.9 0.00 0.00 0.00 79 1013.3
20200803062634 13 341 3.2 8.0 0.00 0.00 0.00 79 1013.3
20200803062527 13 328 3.2 8.0 0.00 0.00 0.00 79 1013.4
20200803062423 13 329 3.2 8.0 0.00 0.00 0.00 79 1013.4
20200803062317 13 328 3.2 8.0 0.00 0.00 0.00 79 1013.4
20200803062211 13 334 1.6 8.0 0.00 0.00 0.00 79 1013.4
20200803062103 13 334 1.6 8.0 0.00 0.00 0.00 79 1013.4
20200803061956 13 10 0.0 8.0 0.00 0.00 0.00 79 1013.3
20200803061850 13 340 0.0 8.0 0.00 0.00 0.00 80 1013.3
20200803061748 13 307 0.0 6.4 0.00 0.00 0.00 80 1013.4
20200803061643 13 308 0.0 6.4 0.00 0.00 0.00 80 1013.3
20200803061537 13 310 0.0 6.4 0.00 0.00 0.00 80 1013.4
20200803061432 13 331 0.0 0.0 0.00 0.00 0.00 80 1013.3
20200803061324 13 331 0.0 0.0 0.00 0.00 0.00 80 1013.3
20200803061217 13 331 0.0 0.0 0.00 0.00 0.00 80 1013.3
20200803061110 13 331 0.0 0.0 0.00 0.00 0.00 80 1013.3
20200803061008 13 331 0.0 0.0 0.00 0.00 0.00 80 1013.3
20200803060905 13 345 0.0 0.0 0.00 0.00 0.00 80 1013.3
20200803060759 13 345 0.0 0.0 0.00 0.00 0.00 80 1013.3
20200803060652 13 345 0.0 0.0 0.00 0.00 0.00 80 1013.3
20200803060547 13 345 0.0 0.0 0.00 0.00 0.00 80 1013.3
20200803060441 13 345 0.0 0.0 0.00 0.00 0.00 80 1013.2
20200803060335 13 345 0.0 0.0 0.00 0.00 0.00 80 1013.3
20200803060232 13 345 0.0 0.0 0.00 0.00 0.00 80 1013.3
20200803060126 13 345 0.0 0.0 0.00 0.00 0.00 80 1013.3
20200803060019 13 345 0.0 0.0 0.00 0.00 0.00 80 1013.3
20200803055912 13 345 0.0 0.0 0.00 0.00 0.00 80 1013.3
20200803055810 13 345 0.0 0.0 0.00 0.00 0.00 80 1013.2
20200803055705 13 345 0.0 0.0 0.00 0.00 0.00 80 1013.3
20200803055557 13 345 0.0 0.0 0.00 0.00 0.00 80 1013.3
20200803055454 13 345 0.0 0.0 0.00 0.00 0.00 80 1013.3
20200803055352 13 345 0.0 0.0 0.00 0.00 0.00 80 1013.2
20200803055249 13 345 0.0 0.0 0.00 0.00 0.00 80 1013.2
20200803055145 13 345 0.0 0.0 0.00 0.00 0.00 80 1013.2
20200803055043 13 345 0.0 0.0 0.00 0.00 0.00 80 1013.2
20200803054940 13 345 0.0 0.0 0.00 0.00 0.00 80 1013.2
20200803054835 13 345 1.6 6.4 0.00 0.00 0.00 80 1013.2
20200803054730 13 345 1.6 6.4 0.00 0.00 0.00 80 1013.2
20200803054624 13 345 1.6 6.4 0.00 0.00 0.00 80 1013.2
20200803054521 13 345 0.0 6.4 0.00 0.00 0.00 80 1013.2
20200803054415 13 345 0.0 6.4 0.00 0.00 0.00 80 1013.1
20200803054310 13 345 0.0 6.4 0.00 0.00 0.00 80 1013.2
20200803054202 13 345 1.6 6.4 0.00 0.00 0.00 80 1013.1
20200803054055 13 345 0.0 6.4 0.00 0.00 0.00 80 1013.2
20200803053953 13 345 0.0 6.4 0.00 0.00 0.00 80 1013.2
20200803053845 13 341 0.0 4.8 0.00 0.00 0.00 80 1013.2
20200803053739 13 341 0.0 4.8 0.00 0.00 0.00 80 1013.2
20200803053633 13 341 0.0 4.8 0.00 0.00 0.00 80 1013.2
20200803053525 13 341 0.0 4.8 0.00 0.00 0.00 80 1013.1
20200803053420 13 341 0.0 6.4 0.00 0.00 0.00 80 1013.1
20200803053315 13 341 1.6 6.4 0.00 0.00 0.00 80 1013.1
20200803053212 13 341 1.6 6.4 0.00 0.00 0.00 80 1013.1
20200803053104 13 341 1.6 6.4 0.00 0.00 0.00 80 1013.1
20200803053001 13 341 1.6 6.4 0.00 0.00 0.00 80 1013.2
20200803052854 13 341 1.6 6.4 0.00 0.00 0.00 80 1013.1
20200803052748 13 341 1.6 6.4 0.00 0.00 0.00 80 1013.1
20200803052641 13 22 1.6 6.4 0.00 0.00 0.00 80 1013.1
20200803052534 13 22 1.6 6.4 0.00 0.00 0.00 80 1013.1
20200803052429 13 22 1.6 6.4 0.00 0.00 0.00 80 1013.1
20200803052322 13 23 1.6 6.4 0.00 0.00 0.00 80 1013.1
20200803052217 13 24 1.6 6.4 0.00 0.00 0.00 81 1013.1
20200803052114 13 24 1.6 6.4 0.00 0.00 0.00 81 1013.1
20200803052012 13 24 1.6 6.4 0.00 0.00 0.00 81 1013.1
20200803051909 13 24 1.6 6.4 0.00 0.00 0.00 81 1013.1
20200803051804 13 25 0.0 6.4 0.00 0.00 0.00 81 1013.1
20200803051659 13 24 0.0 6.4 0.00 0.00 0.00 81 1013.2
20200803051557 13 25 0.0 6.4 0.00 0.00 0.00 81 1013.2
20200803051449 13 344 0.0 6.4 0.00 0.00 0.00 81 1013.1
20200803051343 13 349 0.0 3.2 0.00 0.00 0.00 81 1013.1
20200803051240 13 349 0.0 3.2 0.00 0.00 0.00 81 1013.2
20200803051133 13 349 0.0 3.2 0.00 0.00 0.00 81 1013.1
20200803051027 13 340 0.0 3.2 0.00 0.00 0.00 81 1013.1
20200803050918 13 340 0.0 3.2 0.00 0.00 0.00 81 1013.0
20200803050813 13 340 0.0 3.2 0.00 0.00 0.00 81 1013.0
20200803050707 13 340 0.0 6.4 0.00 0.00 0.00 81 1013.1
20200803050602 13 340 1.6 6.4 0.00 0.00 0.00 81 1013.0
20200803050457 13 340 1.6 6.4 0.00 0.00 0.00 81 1013.1
20200803050352 13 335 1.6 6.4 0.00 0.00 0.00 81 1013.0
20200803050247 13 335 1.6 6.4 0.00 0.00 0.00 81 1013.0
20200803050145 13 335 1.6 6.4 0.00 0.00 0.00 81 1013.0
20200803050038 13 335 3.2 11.3 0.00 0.00 0.00 81 1013.0
20200803045935 13 335 3.2 11.3 0.00 0.00 0.00 81 1013.0
20200803045828 13 335 3.2 11.3 0.00 0.00 0.00 81 1013.1
20200803045722 13 335 3.2 11.3 0.00 0.00 0.00 81 1013.0
20200803045618 13 329 3.2 11.3 0.00 0.00 0.00 81 1013.1
20200803045514 13 334 3.2 11.3 0.00 0.00 0.00 81 1013.0
20200803045406 13 353 3.2 11.3 0.00 0.00 0.00 81 1013.0
20200803045303 13 356 3.2 11.3 0.00 0.00 0.00 81 1013.0
20200803045156 13 0 3.2 11.3 0.00 0.00 0.00 81 1013.1
20200803045052 13 327 3.2 14.5 0.00 0.00 0.00 81 1013.1
20200803044948 13 341 3.2 14.5 0.00 0.00 0.00 81 1013.1
20200803044845 13 317 3.2 14.5 0.00 0.00 0.00 81 1013.1
20200803044737 13 14 3.2 14.5 0.00 0.00 0.00 81 1013.1
20200803044632 13 14 4.8 14.5 0.00 0.00 0.00 81 1013.1
20200803044526 13 334 4.8 14.5 0.00 0.00 0.00 81 1013.0
20200803044419 13 334 4.8 14.5 0.00 0.00 0.00 81 1013.1
20200803044311 13 307 4.8 14.5 0.00 0.00 0.00 81 1013.0
20200803044206 13 330 4.8 14.5 0.00 0.00 0.00 81 1013.0
20200803044059 13 334 6.4 14.5 0.00 0.00 0.00 81 1013.0
20200803043950 13 317 6.4 14.5 0.00 0.00 0.00 81 1013.1
20200803043844 13 328 6.4 14.5 0.00 0.00 0.00 81 1013.0
20200803043736 13 318 6.4 14.5 0.00 0.00 0.00 81 1013.1
20200803043630 13 315 6.4 14.5 0.00 0.00 0.00 80 1013.0
20200803043525 13 316 6.4 14.5 0.00 0.00 0.00 80 1013.0
20200803043422 13 328 6.4 14.5 0.00 0.00 0.00 80 1013.1
20200803043315 13 324 6.4 14.5 0.00 0.00 0.00 80 1013.0
20200803043216 13 339 6.4 14.5 0.00 0.00 0.00 80 1013.0
20200803043104 13 322 4.8 12.9 0.00 0.00 0.00 80 1013.0
20200803042956 13 353 4.8 12.9 0.00 0.00 0.00 80 1013.0
20200803042851 13 338 4.8 12.9 0.00 0.00 0.00 80 1013.0
20200803042748 13 332 4.8 12.9 0.00 0.00 0.00 80 1013.0
20200803042641 13 337 4.8 12.9 0.00 0.00 0.00 80 1013.0
20200803042539 13 322 4.8 11.3 0.00 0.00 0.00 80 1013.0
20200803042437 13 331 4.8 11.3 0.00 0.00 0.00 80 1013.0
20200803042334 13 316 4.8 11.3 0.00 0.00 0.00 80 1013.0
20200803042228 13 5 4.8 11.3 0.00 0.00 0.00 80 1013.0
20200803042125 13 331 3.2 11.3 0.00 0.00 0.00 80 1013.0
20200803042019 13 312 3.2 11.3 0.00 0.00 0.00 80 1013.0
20200803041912 13 332 3.2 11.3 0.00 0.00 0.00 79 1013.0
20200803041806 14 5 3.2 11.3 0.00 0.00 0.00 79 1013.0
20200803041701 14 320 3.2 8.0 0.00 0.00 0.00 79 1013.0
20200803041553 14 328 3.2 12.9 0.00 0.00 0.00 79 1013.0
20200803041450 14 346 3.2 12.9 0.00 0.00 0.00 79 1013.0
20200803041344 14 353 3.2 12.9 0.00 0.00 0.00 79 1013.0
20200803041236 14 317 4.8 12.9 0.00 0.00 0.00 79 1013.0
20200803041133 14 326 4.8 12.9 0.00 0.00 0.00 79 1013.0
20200803041028 14 0 4.8 12.9 0.00 0.00 0.00 79 1012.9
20200803040921 14 10 4.8 12.9 0.00 0.00 0.00 79 1012.9
20200803040814 14 351 4.8 12.9 0.00 0.00 0.00 78 1013.0
20200803040707 14 303 4.8 12.9 0.00 0.00 0.00 78 1013.0
20200803040602 14 326 4.8 16.1 0.00 0.00 0.00 78 1012.9
20200803040456 14 328 4.8 16.1 0.00 0.00 0.00 77 1012.9
20200803040348 14 325 4.8 16.1 0.00 0.00 0.00 77 1012.9
20200803040245 14 325 4.8 16.1 0.00 0.00 0.00 77 1012.9
20200803040138 14 14 3.2 16.1 0.00 0.00 0.00 77 1012.9
20200803040034 14 344 3.2 16.1 0.00 0.00 0.00 77 1012.8
20200803035931 14 317 3.2 16.1 0.00 0.00 0.00 76 1012.8
20200803035825 14 0 4.8 16.1 0.00 0.00 0.00 76 1012.7
20200803035721 14 10 4.8 16.1 0.00 0.00 0.00 76 1012.7
20200803035617 14 354 4.8 16.1 0.00 0.00 0.00 76 1012.7
20200803035515 14 327 4.8 16.1 0.00 0.00 0.00 75 1012.7
20200803035410 14 327 4.8 16.1 0.00 0.00 0.00 75 1012.7
20200803035305 14 345 4.8 16.1 0.00 0.00 0.00 75 1012.7
20200803035202 14 49 4.8 16.1 0.00 0.00 0.00 75 1012.7
20200803035057 14 0 4.8 16.1 0.00 0.00 0.00 75 1012.7
20200803034954 14 24 4.8 16.1 0.00 0.00 0.00 75 1012.7
20200803034848 14 322 4.8 16.1 0.00 0.00 0.00 75 1012.7
20200803034742 14 333 4.8 16.1 0.00 0.00 0.00 75 1012.7
20200803034639 14 328 3.2 16.1 0.00 0.00 0.00 75 1012.7
20200803034537 14 336 3.2 11.3 0.00 0.00 0.00 75 1012.7
20200803034432 14 338 3.2 11.3 0.00 0.00 0.00 75 1012.7
20200803034327 14 323 3.2 12.9 0.00 0.00 0.00 75 1012.6
20200803034225 15 317 3.2 12.9 0.00 0.00 0.00 75 1012.6
20200803034122 15 320 3.2 12.9 0.00 0.00 0.00 75 1012.6
20200803034018 15 325 3.2 12.9 0.00 0.00 0.00 75 1012.6
20200803033914 15 330 3.2 12.9 0.00 0.00 0.00 75 1012.6
20200803033811 15 329 3.2 12.9 0.00 0.00 0.00 75 1012.6
20200803033708 15 0 3.2 12.9 0.00 0.00 0.00 75 1012.6
20200803033601 15 0 3.2 12.9 0.00 0.00 0.00 75 1012.6
20200803033454 15 311 4.8 12.9 0.00 0.00 0.00 75 1012.6
20200803033349 15 16 4.8 12.9 0.00 0.00 0.00 75 1012.6
20200803033244 15 329 4.8 12.9 0.00 0.00 0.00 75 1012.6
20200803033140 15 330 4.8 12.9 0.00 0.00 0.00 75 1012.7
20200803033032 15 0 4.8 12.9 0.00 0.00 0.00 75 1012.6
20200803032925 15 314 4.8 12.9 0.00 0.00 0.00 75 1012.7
20200803032820 15 318 4.8 12.9 0.00 0.00 0.00 75 1012.7
20200803032715 15 14 4.8 12.9 0.00 0.00 0.00 75 1012.7
20200803032608 15 316 4.8 12.9 0.00 0.00 0.00 75 1012.7
20200803032505 15 321 4.8 12.9 0.00 0.00 0.00 75 1012.7
20200803032402 15 316 4.8 11.3 0.00 0.00 0.00 76 1012.6
20200803032257 15 317 4.8 11.3 0.00 0.00 0.00 75 1012.6
20200803032150 15 319 4.8 11.3 0.00 0.00 0.00 76 1012.6
20200803032045 15 318 4.8 11.3 0.00 0.00 0.00 76 1012.6
20200803031939 15 340 4.8 11.3 0.00 0.00 0.00 76 1012.6
20200803031837 15 340 4.8 11.3 0.00 0.00 0.00 76 1012.6
20200803031733 15 335 4.8 11.3 0.00 0.00 0.00 76 1012.6
20200803031626 15 328 4.8 11.3 0.00 0.00 0.00 76 1012.6
20200803031518 15 337 4.8 11.3 0.00 0.00 0.00 76 1012.6
20200803031412 15 340 4.8 11.3 0.00 0.00 0.00 76 1012.6
20200803031306 15 320 4.8 11.3 0.00 0.00 0.00 76 1012.6
20200803031200 15 324 4.8 9.7 0.00 0.00 0.00 76 1012.6
20200803031057 15 319 4.8 9.7 0.00 0.00 0.00 76 1012.6
20200803030951 15 318 4.8 9.7 0.00 0.00 0.00 76 1012.7
20200803030848 15 318 4.8 9.7 0.00 0.00 0.00 76 1012.7
20200803030745 15 316 4.8 9.7 0.00 0.00 0.00 76 1012.6
20200803030641 15 295 4.8 11.3 0.00 0.00 0.00 76 1012.6
20200803030539 15 324 4.8 11.3 0.00 0.00 0.00 76 1012.6
20200803030436 15 320 4.8 11.3 0.00 0.00 0.00 76 1012.6
20200803030330 15 320 4.8 11.3 0.00 0.00 0.00 76 1012.6
20200803030228 15 321 4.8 11.3 0.00 0.00 0.00 76 1012.6
20200803030123 15 314 4.8 11.3 0.00 0.00 0.00 76 1012.6
20200803030017 15 322 4.8 11.3 0.00 0.00 0.00 76 1012.6
20200803025911 15 322 4.8 11.3 0.00 0.00 0.00 76 1012.6
20200803025807 15 342 4.8 11.3 0.00 0.00 0.00 76 1012.6
20200803025702 15 322 4.8 11.3 0.00 0.00 0.00 76 1012.6
20200803025601 15 307 4.8 11.3 0.00 0.00 0.00 76 1012.6
20200803025454 15 331 4.8 11.3 0.00 0.00 0.00 76 1012.6
20200803025346 15 338 4.8 11.3 0.00 0.00 0.00 76 1012.6
20200803025241 15 315 4.8 11.3 0.00 0.00 0.00 76 1012.6
20200803025138 15 324 4.8 11.3 0.00 0.00 0.00 76 1012.6
20200803025032 15 324 4.8 11.3 0.00 0.00 0.00 76 1012.6
20200803024930 15 326 4.8 11.3 0.00 0.00 0.00 76 1012.6
20200803024827 15 317 3.2 11.3 0.00 0.00 0.00 76 1012.6
20200803024719 15 322 3.2 8.0 0.00 0.00 0.00 76 1012.6
20200803024616 15 324 4.8 8.0 0.00 0.00 0.00 76 1012.6
20200803024514 15 338 4.8 8.0 0.00 0.00 0.00 76 1012.6
20200803024406 15 328 4.8 8.0 0.00 0.00 0.00 76 1012.6
20200803024304 15 324 4.8 8.0 0.00 0.00 0.00 76 1012.5
20200803024202 15 306 3.2 8.0 0.00 0.00 0.00 76 1012.5
20200803024054 15 351 3.2 8.0 0.00 0.00 0.00 76 1012.6
20200803023952 15 328 3.2 8.0 0.00 0.00 0.00 76 1012.5
20200803023846 15 323 3.2 8.0 0.00 0.00 0.00 76 1012.6
20200803023742 15 324 3.2 11.3 0.00 0.00 0.00 76 1012.5
20200803023638 15 0 3.2 11.3 0.00 0.00 0.00 76 1012.6
20200803023533 15 346 3.2 11.3 0.00 0.00 0.00 76 1012.6
20200803023430 15 347 3.2 11.3 0.00 0.00 0.00 76 1012.6
20200803023326 15 318 3.2 11.3 0.00 0.00 0.00 76 1012.6
20200803023222 15 306 3.2 11.3 0.00 0.00 0.00 76 1012.6
20200803023114 15 328 3.2 11.3 0.00 0.00 0.00 76 1012.6
20200803023010 15 326 3.2 11.3 0.00 0.00 0.00 76 1012.6
20200803022905 15 328 3.2 11.3 0.00 0.00 0.00 77 1012.5
20200803022802 15 322 3.2 11.3 0.00 0.00 0.00 77 1012.6
20200803022657 15 339 3.2 11.3 0.00 0.00 0.00 77 1012.6
20200803022554 15 339 3.2 11.3 0.00 0.00 0.00 77 1012.6
20200803022451 15 328 3.2 11.3 0.00 0.00 0.00 77 1012.6
20200803022348 15 328 3.2 11.3 0.00 0.00 0.00 77 1012.6
20200803022243 15 329 3.2 11.3 0.00 0.00 0.00 77 1012.6
20200803022136 15 320 3.2 11.3 0.00 0.00 0.00 77 1012.6
20200803022030 15 320 3.2 11.3 0.00 0.00 0.00 77 1012.6
20200803021925 15 318 3.2 11.3 0.00 0.00 0.00 77 1012.6
20200803021823 15 333 3.2 11.3 0.00 0.00 0.00 77 1012.6
20200803021718 15 325 3.2 9.7 0.00 0.00 0.00 77 1012.6
20200803021610 15 315 3.2 9.7 0.00 0.00 0.00 77 1012.6
20200803021505 15 314 3.2 9.7 0.00 0.00 0.00 77 1012.5
20200803021357 15 314 3.2 9.7 0.00 0.00 0.00 77 1012.5
20200803021255 15 333 3.2 9.7 0.00 0.00 0.00 77 1012.5
20200803021147 15 333 3.2 9.7 0.00 0.00 0.00 77 1012.5
20200803021040 15 345 3.2 9.7 0.00 0.00 0.00 77 1012.5
20200803020938 15 334 3.2 9.7 0.00 0.00 0.00 76 1012.6
20200803020830 15 309 3.2 9.7 0.00 0.00 0.00 76 1012.5
20200803020727 15 330 3.2 9.7 0.00 0.00 0.00 76 1012.6
20200803020622 15 311 3.2 9.7 0.00 0.00 0.00 76 1012.6
20200803020520 15 333 3.2 8.0 0.00 0.00 0.00 76 1012.6
20200803020417 15 334 3.2 8.0 0.00 0.00 0.00 76 1012.6
20200803020313 15 332 3.2 8.0 0.00 0.00 0.00 76 1012.6
20200803020209 15 332 3.2 8.0 0.00 0.00 0.00 75 1012.6
20200803020106 15 341 4.8 8.0 0.00 0.00 0.00 75 1012.6
20200803020003 15 0 4.8 8.0 0.00 0.00 0.00 75 1012.6
20200803015855 15 0 4.8 8.0 0.00 0.00 0.00 75 1012.6
20200803015750 15 309 4.8 9.7 0.00 0.00 0.00 74 1012.6
20200803015645 15 307 4.8 9.7 0.00 0.00 0.00 74 1012.6
20200803015542 15 309 4.8 9.7 0.00 0.00 0.00 74 1012.6
20200803015440 15 316 4.8 9.7 0.00 0.00 0.00 74 1012.6
20200803015335 15 316 4.8 9.7 0.00 0.00 0.00 74 1012.6
20200803015228 15 326 4.8 9.7 0.00 0.00 0.00 74 1012.6
20200803015124 15 322 3.2 9.7 0.00 0.00 0.00 74 1012.6
20200803015017 15 316 3.2 9.7 0.00 0.00 0.00 74 1012.6
20200803014911 15 324 3.2 9.7 0.00 0.00 0.00 74 1012.7
20200803014809 15 332 3.2 9.7 0.00 0.00 0.00 73 1012.7
20200803014706 15 336 3.2 9.7 0.00 0.00 0.00 73 1012.7
20200803014601 15 316 3.2 9.7 0.00 0.00 0.00 73 1012.6
20200803014456 15 307 3.2 9.7 0.00 0.00 0.00 73 1012.6
20200803014348 15 314 3.2 9.7 0.00 0.00 0.00 73 1012.6
20200803014245 15 318 3.2 9.7 0.00 0.00 0.00 73 1012.7
20200803014142 15 319 3.2 9.7 0.00 0.00 0.00 73 1012.6
20200803014036 15 329 3.2 9.7 0.00 0.00 0.00 73 1012.6
20200803013929 15 319 3.2 9.7 0.00 0.00 0.00 73 1012.6
20200803013825 15 307 3.2 9.7 0.00 0.00 0.00 73 1012.6
20200803013718 16 327 3.2 9.7 0.00 0.00 0.00 73 1012.6
20200803013611 16 328 3.2 9.7 0.00 0.00 0.00 73 1012.7
20200803013507 16 333 4.8 9.7 0.00 0.00 0.00 73 1012.6
20200803013405 16 319 4.8 9.7 0.00 0.00 0.00 73 1012.6
20200803013258 16 318 4.8 9.7 0.00 0.00 0.00 73 1012.6
20200803013152 16 318 4.8 9.7 0.00 0.00 0.00 73 1012.7
20200803013045 16 307 4.8 9.7 0.00 0.00 0.00 73 1012.7
20200803012938 16 326 4.8 9.7 0.00 0.00 0.00 73 1012.7
20200803012836 16 318 4.8 9.7 0.00 0.00 0.00 73 1012.7
20200803012730 16 309 4.8 9.7 0.00 0.00 0.00 73 1012.7
20200803012625 16 316 4.8 8.0 0.00 0.00 0.00 73 1012.7
20200803012518 16 320 4.8 8.0 0.00 0.00 0.00 73 1012.7
20200803012416 16 319 4.8 6.4 0.00 0.00 0.00 73 1012.7
20200803012312 16 321 4.8 6.4 0.00 0.00 0.00 73 1012.7
20200803012206 16 328 4.8 6.4 0.00 0.00 0.00 73 1012.7
20200803012103 16 316 4.8 6.4 0.00 0.00 0.00 73 1012.6
20200803012000 16 322 4.8 6.4 0.00 0.00 0.00 73 1012.7
20200803011856 16 323 4.8 6.4 0.00 0.00 0.00 73 1012.7
20200803011753 16 316 4.8 6.4 0.00 0.00 0.00 73 1012.7
20200803011647 16 311 4.8 6.4 0.00 0.00 0.00 73 1012.7
20200803011539 16 311 4.8 6.4 0.00 0.00 0.00 72 1012.7
20200803011437 16 315 4.8 6.4 0.00 0.00 0.00 72 1012.7
20200803011333 16 317 3.2 6.4 0.00 0.00 0.00 72 1012.7
20200803011228 16 322 3.2 6.4 0.00 0.00 0.00 72 1012.7
20200803011124 16 324 3.2 6.4 0.00 0.00 0.00 72 1012.7
20200803011017 16 326 3.2 6.4 0.00 0.00 0.00 72 1012.7
20200803010912 16 317 3.2 6.4 0.00 0.00 0.00 72 1012.8
20200803010810 16 317 3.2 6.4 0.00 0.00 0.00 72 1012.8
20200803010703 16 320 3.2 6.4 0.00 0.00 0.00 72 1012.8
20200803010601 16 324 3.2 6.4 0.00 0.00 0.00 72 1012.8
20200803010457 16 320 3.2 6.4 0.00 0.00 0.00 72 1012.8
20200803010352 16 320 3.2 6.4 0.00 0.00 0.00 72 1012.8
20200803010248 16 320 3.2 6.4 0.00 0.00 0.00 72 1012.8
20200803010144 16 320 3.2 6.4 0.00 0.00 0.00 72 1012.8
20200803010036 16 320 3.2 6.4 0.00 0.00 0.00 72 1012.8
20200803005931 16 319 3.2 6.4 0.00 0.00 0.00 72 1012.8
20200803005826 16 320 3.2 6.4 0.00 0.00 0.00 72 1012.8
20200803005723 16 318 1.6 6.4 0.00 0.00 0.00 72 1012.8
20200803005621 16 319 1.6 6.4 0.00 0.00 0.00 72 1012.8
20200803005513 16 319 1.6 6.4 0.00 0.00 0.00 72 1012.8
20200803005409 16 320 1.6 4.8 0.00 0.00 0.00 72 1012.8
20200803005301 16 330 1.6 4.8 0.00 0.00 0.00 72 1012.8
20200803005156 16 330 1.6 4.8 0.00 0.00 0.00 72 1012.9
20200803005052 16 330 1.6 4.8 0.00 0.00 0.00 72 1012.9
20200803004946 16 330 1.6 4.8 0.00 0.00 0.00 72 1012.9
20200803004840 16 330 1.6 4.8 0.00 0.00 0.00 72 1012.8
20200803004735 16 330 1.6 4.8 0.00 0.00 0.00 72 1012.8
20200803004628 16 330 1.6 4.8 0.00 0.00 0.00 72 1012.9
20200803004524 16 330 1.6 4.8 0.00 0.00 0.00 72 1012.9
20200803004418 16 330 1.6 6.4 0.00 0.00 0.00 71 1012.8
20200803004311 16 330 1.6 6.4 0.00 0.00 0.00 72 1012.8
20200803004208 16 330 1.6 6.4 0.00 0.00 0.00 71 1012.8
20200803004100 16 330 1.6 6.4 0.00 0.00 0.00 71 1012.9
20200803003955 16 330 1.6 6.4 0.00 0.00 0.00 71 1012.8
20200803003852 16 330 1.6 6.4 0.00 0.00 0.00 71 1012.8
20200803003746 16 330 1.6 6.4 0.00 0.00 0.00 71 1012.9
20200803003643 16 330 1.6 6.4 0.00 0.00 0.00 71 1012.8
20200803003532 16 330 3.2 6.4 0.00 0.00 0.00 71 1012.9
20200803003425 16 330 3.2 8.0 0.00 0.00 0.00 71 1012.9
20200803003319 16 331 3.2 8.0 0.00 0.00 0.00 71 1012.8
20200803003214 16 329 3.2 8.0 0.00 0.00 0.00 71 1012.8
20200803003107 16 329 3.2 8.0 0.00 0.00 0.00 70 1012.9
20200803003005 16 329 3.2 8.0 0.00 0.00 0.00 70 1012.9
20200803002902 16 328 3.2 8.0 0.00 0.00 0.00 70 1012.9
20200803002758 16 346 3.2 8.0 0.00 0.00 0.00 70 1012.9
20200803002654 16 346 3.2 8.0 0.00 0.00 0.00 70 1012.9
20200803002547 16 349 3.2 8.0 0.00 0.00 0.00 70 1012.8
20200803002443 16 10 3.2 9.7 0.00 0.00 0.00 70 1012.9
20200803002336 16 336 3.2 9.7 0.00 0.00 0.00 70 1012.8
20200803002234 16 337 3.2 9.7 0.00 0.00 0.00 70 1012.8
20200803002127 16 334 3.2 9.7 0.00 0.00 0.00 70 1012.8
20200803002025 16 330 3.2 9.7 0.00 0.00 0.00 70 1012.8
20200803001918 16 330 3.2 9.7 0.00 0.00 0.00 70 1012.9
20200803001811 16 330 3.2 9.7 0.00 0.00 0.00 69 1012.8
20200803001707 16 327 3.2 9.7 0.00 0.00 0.00 69 1012.9
20200803001605 16 330 4.8 9.7 0.00 0.00 0.00 69 1012.8
20200803001500 16 330 4.8 9.7 0.00 0.00 0.00 69 1012.8
20200803001356 16 330 3.2 11.3 0.00 0.00 0.00 69 1012.8
20200803001253 16 328 3.2 11.3 0.00 0.00 0.00 69 1012.9
20200803001147 16 321 3.2 11.3 0.00 0.00 0.00 69 1012.8
20200803001044 16 324 3.2 11.3 0.00 0.00 0.00 69 1012.9
20200803000938 16 320 3.2 11.3 0.00 0.00 0.00 69 1012.8
20200803000838 16 317 3.2 11.3 0.00 0.00 0.00 69 1012.9
20200803000732 16 318 3.2 11.3 0.00 0.00 0.00 69 1012.9
20200803000628 16 311 3.2 11.3 0.00 0.00 0.00 69 1012.9
20200803000524 16 289 3.2 11.3 0.00 0.00 0.00 69 1013.0
20200803000417 16 316 4.8 11.3 0.00 0.00 0.00 69 1012.9
20200803000315 16 316 4.8 11.3 0.00 0.00 0.00 69 1012.9
20200803000207 16 301 4.8 11.3 0.00 0.00 0.00 68 1013.0
20200803000100 16 298 4.8 11.3 0.00 0.00 0.00 68 1012.9
20200802235954 16 297 4.8 11.3 0.00 0.00 0.00 68 1013.0
20200802235848 17 306 4.8 11.3 0.00 0.00 0.00 68 1013.0
20200802235743 17 309 4.8 11.3 0.00 0.00 0.00 68 1013.0
20200802235635 17 309 4.8 11.3 0.00 0.00 0.00 68 1013.0
20200802235533 17 304 4.8 11.3 0.00 0.00 0.00 68 1013.0
20200802235425 17 282 4.8 9.7 0.00 0.00 0.00 68 1013.0
20200802235319 17 295 4.8 12.9 0.00 0.00 0.00 68 1013.0
20200802235212 17 294 4.8 12.9 0.00 0.00 0.00 68 1013.0
20200802235105 17 286 4.8 12.9 0.00 0.00 0.00 68 1013.0
20200802235001 17 287 4.8 12.9 0.00 0.00 0.00 67 1013.0
20200802234857 17 303 4.8 12.9 0.00 0.00 0.00 67 1013.0
20200802234753 17 294 4.8 12.9 0.00 0.00 0.00 67 1013.0
20200802234647 17 298 4.8 12.9 0.00 0.00 0.00 67 1013.0
20200802234540 17 291 4.8 12.9 0.00 0.00 0.00 67 1013.0
20200802234435 17 289 4.8 12.9 0.00 0.00 0.00 67 1013.0
20200802234328 17 289 4.8 12.9 0.00 0.00 0.00 67 1013.0
20200802234223 17 303 4.8 12.9 0.00 0.00 0.00 67 1013.0
20200802234117 17 299 4.8 12.9 0.00 0.00 0.00 67 1013.1
20200802234010 17 299 4.8 12.9 0.00 0.00 0.00 67 1013.0
20200802233907 17 265 4.8 12.9 0.00 0.00 0.00 67 1013.0
20200802233801 17 297 4.8 12.9 0.00 0.00 0.00 67 1013.1
20200802233655 17 286 4.8 12.9 0.00 0.00 0.00 67 1013.0
20200802233552 17 284 4.8 12.9 0.00 0.00 0.00 67 1013.0
20200802233450 17 297 4.8 12.9 0.00 0.00 0.00 67 1013.0
20200802233343 17 290 4.8 12.9 0.00 0.00 0.00 67 1013.0
20200802233240 17 291 4.8 11.3 0.00 0.00 0.00 67 1013.0
20200802233132 17 296 4.8 11.3 0.00 0.00 0.00 67 1013.0
20200802233027 17 302 4.8 11.3 0.00 0.00 0.00 67 1013.0
20200802232923 17 303 4.8 11.3 0.00 0.00 0.00 67 1013.0
20200802232819 17 305 4.8 11.3 0.00 0.00 0.00 67 1012.9
20200802232717 17 307 4.8 11.3 0.00 0.00 0.00 67 1012.9
20200802232615 17 320 4.8 11.3 0.00 0.00 0.00 67 1012.9
20200802232509 17 301 4.8 11.3 0.00 0.00 0.00 67 1012.9
20200802232404 17 275 4.8 11.3 0.00 0.00 0.00 67 1013.0
20200802232258 17 274 4.8 11.3 0.00 0.00 0.00 66 1013.0
20200802232152 17 278 4.8 11.3 0.00 0.00 0.00 67 1013.0
20200802232048 17 291 4.8 11.3 0.00 0.00 0.00 67 1013.0
20200802231941 17 302 4.8 12.9 0.00 0.00 0.00 67 1013.0
20200802231834 17 307 4.8 12.9 0.00 0.00 0.00 67 1013.0
20200802231730 17 282 4.8 12.9 0.00 0.00 0.00 67 1013.0
20200802231626 17 286 4.8 12.9 0.00 0.00 0.00 67 1013.0
20200802231523 17 295 4.8 12.9 0.00 0.00 0.00 67 1013.0
20200802231417 17 257 4.8 12.9 0.00 0.00 0.00 68 1013.0
20200802231312 17 321 4.8 12.9 0.00 0.00 0.00 68 1013.0
20200802231208 17 283 4.8 12.9 0.00 0.00 0.00 68 1013.0
20200802231100 17 292 4.8 12.9 0.00 0.00 0.00 68 1013.0
20200802230957 17 279 4.8 12.9 0.00 0.00 0.00 68 1013.0
20200802230851 17 291 4.8 12.9 0.00 0.00 0.00 68 1013.0
20200802230749 17 284 4.8 12.9 0.00 0.00 0.00 68 1013.0
20200802230641 17 297 4.8 12.9 0.00 0.00 0.00 68 1013.0
20200802230534 17 299 4.8 12.9 0.00 0.00 0.00 69 1013.0
20200802230429 17 273 4.8 12.9 0.00 0.00 0.00 69 1013.1
20200802230324 17 289 4.8 12.9 0.00 0.00 0.00 69 1013.1
20200802230217 17 282 4.8 12.9 0.00 0.00 0.00 69 1013.1
20200802230111 17 307 4.8 12.9 0.00 0.00 0.00 70 1013.0
20200802230006 17 299 4.8 12.9 0.00 0.00 0.00 70 1013.0
20200802225900 17 299 4.8 12.9 0.00 0.00 0.00 70 1013.0
20200802225758 17 287 4.8 12.9 0.00 0.00 0.00 70 1013.0
20200802225653 17 283 4.8 12.9 0.00 0.00 0.00 70 1013.0
20200802225550 17 274 4.8 12.9 0.00 0.00 0.00 70 1013.0
20200802225445 17 293 4.8 12.9 0.00 0.00 0.00 70 1013.1
20200802225340 17 295 4.8 12.9 0.00 0.00 0.00 70 1013.1
20200802225236 17 291 4.8 12.9 0.00 0.00 0.00 70 1013.1
20200802225133 17 303 4.8 12.9 0.00 0.00 0.00 70 1013.1
20200802225029 18 301 4.8 12.9 0.00 0.00 0.00 70 1013.1
20200802224923 18 308 4.8 12.9 0.00 0.00 0.00 70 1013.1
20200802224820 18 308 4.8 12.9 0.00 0.00 0.00 70 1013.1
20200802224716 18 310 4.8 12.9 0.00 0.00 0.00 70 1013.0
20200802224610 18 297 4.8 12.9 0.00 0.00 0.00 70 1013.0
20200802224506 18 301 4.8 12.9 0.00 0.00 0.00 70 1013.1
20200802224400 18 280 4.8 12.9 0.00 0.00 0.00 70 1013.1
20200802224256 18 280 4.8 11.3 0.00 0.00 0.00 70 1013.1
20200802224150 18 289 4.8 11.3 0.00 0.00 0.00 70 1013.1
20200802224046 18 296 4.8 11.3 0.00 0.00 0.00 70 1013.2
20200802223942 18 279 4.8 11.3 0.00 0.00 0.00 70 1013.2
20200802223834 18 305 4.8 11.3 0.00 0.00 0.00 70 1013.2
20200802223727 18 311 4.8 11.3 0.00 0.00 0.00 70 1013.2
20200802223619 18 272 4.8 11.3 0.00 0.00 0.00 70 1013.1
20200802223515 18 312 4.8 11.3 0.00 0.00 0.00 70 1013.1
20200802223410 18 260 4.8 11.3 0.00 0.00 0.00 70 1013.1
20200802223304 18 291 4.8 9.7 0.00 0.00 0.00 70 1013.1
20200802223154 18 271 3.2 9.7 0.00 0.00 0.00 70 1013.1
20200802223047 18 285 3.2 9.7 0.00 0.00 0.00 69 1013.1
20200802222941 18 273 3.2 9.7 0.00 0.00 0.00 69 1013.1
20200802222837 18 282 3.2 9.7 0.00 0.00 0.00 69 1013.1
20200802222734 18 273 3.2 9.7 0.00 0.00 0.00 69 1013.1
20200802222629 18 254 3.2 9.7 0.00 0.00 0.00 69 1013.1
20200802222523 18 274 3.2 9.7 0.00 0.00 0.00 69 1013.1
20200802222421 18 270 3.2 9.7 0.00 0.00 0.00 69 1013.1
20200802222315 18 272 3.2 9.7 0.00 0.00 0.00 69 1013.1
20200802222209 18 269 3.2 9.7 0.00 0.00 0.00 69 1013.1
20200802222101 18 288 3.2 9.7 0.00 0.00 0.00 69 1013.1
20200802221953 18 276 3.2 9.7 0.00 0.00 0.00 69 1013.1
20200802221851 18 283 3.2 8.0 0.00 0.00 0.00 68 1013.1
20200802221749 18 299 3.2 8.0 0.00 0.00 0.00 68 1013.1
20200802221644 18 270 3.2 8.0 0.00 0.00 0.00 68 1013.1
20200802221541 18 268 3.2 8.0 0.00 0.00 0.00 68 1013.1
20200802221438 18 274 3.2 8.0 0.00 0.00 0.00 68 1013.1
20200802221333 18 267 3.2 8.0 0.00 0.00 0.00 68 1013.1
20200802221225 18 280 3.2 8.0 0.00 0.00 0.00 68 1013.1
20200802221119 18 274 3.2 8.0 0.00 0.00 0.00 68 1013.1
20200802221012 18 274 3.2 9.7 0.00 0.00 0.00 68 1013.1
20200802220910 18 264 3.2 9.7 0.00 0.00 0.00 68 1013.1
20200802220804 18 282 3.2 9.7 0.00 0.00 0.00 68 1013.1
20200802220658 18 282 3.2 9.7 0.00 0.00 0.00 68 1013.1
20200802220550 18 278 3.2 9.7 0.00 0.00 0.00 68 1013.1
20200802220444 18 278 3.2 9.7 0.00 0.00 0.00 68 1013.1
20200802220339 18 275 3.2 9.7 0.00 0.00 0.00 68 1013.1
20200802220236 18 275 3.2 9.7 0.00 0.00 0.00 68 1013.1
20200802220132 18 275 3.2 9.7 0.00 0.00 0.00 68 1013.1
20200802220028 18 278 3.2 11.3 0.00 0.00 0.00 68 1013.0
20200802215924 18 278 3.2 11.3 0.00 0.00 0.00 68 1013.1
20200802215817 18 278 3.2 11.3 0.00 0.00 0.00 68 1013.1
20200802215713 18 278 3.2 11.3 0.00 0.00 0.00 68 1013.1
20200802215609 18 276 3.2 11.3 0.00 0.00 0.00 68 1013.1
20200802215506 18 273 3.2 11.3 0.00 0.00 0.00 68 1013.1
20200802215359 18 288 3.2 11.3 0.00 0.00 0.00 68 1013.1
20200802215256 18 289 3.2 11.3 0.00 0.00 0.00 68 1013.1
20200802215149 18 263 3.2 11.3 0.00 0.00 0.00 68 1013.1
20200802215043 18 263 3.2 11.3 0.00 0.00 0.00 68 1013.2
20200802214940 18 275 3.2 11.3 0.00 0.00 0.00 68 1013.2
20200802214835 18 276 3.2 11.3 0.00 0.00 0.00 68 1013.1
20200802214728 18 280 3.2 11.3 0.00 0.00 0.00 68 1013.1
20200802214620 18 263 3.2 11.3 0.00 0.00 0.00 68 1013.1
20200802214518 18 263 3.2 11.3 0.00 0.00 0.00 68 1013.1
20200802214414 18 278 3.2 11.3 0.00 0.00 0.00 68 1013.1
20200802214310 18 282 3.2 11.3 0.00 0.00 0.00 68 1013.2
20200802214205 18 288 3.2 11.3 0.00 0.00 0.00 68 1013.2
20200802214103 18 287 1.6 11.3 0.00 0.00 0.00 69 1013.1
20200802213959 18 282 1.6 8.0 0.00 0.00 0.00 69 1013.1
20200802213855 18 280 1.6 8.0 0.00 0.00 0.00 69 1013.1
20200802213748 18 278 1.6 9.7 0.00 0.00 0.00 69 1013.1
20200802213641 18 278 1.6 9.7 0.00 0.00 0.00 68 1013.1
20200802213538 18 278 1.6 9.7 0.00 0.00 0.00 68 1013.1
20200802213434 18 278 1.6 9.7 0.00 0.00 0.00 68 1013.1
20200802213327 18 279 1.6 9.7 0.00 0.00 0.00 68 1013.1
20200802213221 18 279 1.6 9.7 0.00 0.00 0.00 68 1013.1
20200802213115 18 280 0.0 9.7 0.00 0.00 0.00 68 1013.1
20200802213009 18 280 0.0 9.7 0.00 0.00 0.00 69 1013.1
20200802212907 18 280 1.6 9.7 0.00 0.00 0.00 69 1013.2
20200802212802 18 280 1.6 9.7 0.00 0.00 0.00 69 1013.1
20200802212655 18 280 1.6 9.7 0.00 0.00 0.00 68 1013.2
20200802212549 18 276 1.6 9.7 0.00 0.00 0.00 68 1013.1
20200802212441 18 275 1.6 9.7 0.00 0.00 0.00 68 1013.1
20200802212338 18 275 1.6 9.7 0.00 0.00 0.00 68 1013.1
20200802212233 18 275 1.6 9.7 0.00 0.00 0.00 68 1013.1
20200802212128 18 275 1.6 9.7 0.00 0.00 0.00 68 1013.1
20200802212024 18 276 1.6 9.7 0.00 0.00 0.00 68 1013.1
20200802211921 18 276 0.0 9.7 0.00 0.00 0.00 68 1013.1
20200802211815 18 277 0.0 9.7 0.00 0.00 0.00 68 1013.1
20200802211711 19 270 0.0 4.8 0.00 0.00 0.00 68 1013.1
20200802211609 19 270 0.0 4.8 0.00 0.00 0.00 68 1013.1
20200802211503 19 270 0.0 4.8 0.00 0.00 0.00 68 1013.1
20200802211400 19 270 0.0 4.8 0.00 0.00 0.00 68 1013.1
20200802211254 19 270 1.6 4.8 0.00 0.00 0.00 68 1013.1
20200802211149 19 270 0.0 4.8 0.00 0.00 0.00 67 1013.1
20200802211042 19 270 0.0 0.0 0.00 0.00 0.00 67 1013.1
20200802210936 19 270 0.0 4.8 0.00 0.00 0.00 67 1013.1
20200802210832 19 270 0.0 4.8 0.00 0.00 0.00 67 1013.1
20200802210724 19 270 0.0 4.8 0.00 0.00 0.00 67 1013.1
20200802210619 19 270 0.0 4.8 0.00 0.00 0.00 67 1013.1
20200802210511 19 270 0.0 4.8 0.00 0.00 0.00 67 1013.1
20200802210409 19 269 0.0 4.8 0.00 0.00 0.00 67 1013.1
20200802210304 19 270 0.0 3.2 0.00 0.00 0.00 67 1013.1
20200802210156 19 270 0.0 0.0 0.00 0.00 0.00 67 1013.1
20200802210049 19 270 0.0 0.0 0.00 0.00 0.00 67 1013.1
20200802205941 19 270 0.0 0.0 0.00 0.00 0.00 67 1013.1
20200802205838 19 270 0.0 0.0 0.00 0.00 0.00 67 1013.2
20200802205735 19 270 0.0 8.0 0.00 0.00 0.00 67 1013.2
20200802205629 19 270 1.6 8.0 0.00 0.00 0.00 66 1013.1
20200802205522 19 270 0.0 8.0 0.00 0.00 0.00 66 1013.2
20200802205419 19 270 1.6 8.0 0.00 0.00 0.00 66 1013.2
20200802205316 19 270 1.6 8.0 0.00 0.00 0.00 66 1013.2
20200802205212 19 280 0.0 8.0 0.00 0.00 0.00 66 1013.1
20200802205107 19 267 0.0 8.0 0.00 0.00 0.00 66 1013.2
20200802205005 19 267 0.0 8.0 0.00 0.00 0.00 66 1013.2
20200802204859 19 267 1.6 8.0 0.00 0.00 0.00 66 1013.1
20200802204756 19 267 0.0 9.7 0.00 0.00 0.00 65 1013.1
20200802204652 19 266 0.0 9.7 0.00 0.00 0.00 65 1013.1
20200802204545 19 262 0.0 9.7 0.00 0.00 0.00 65 1013.1
20200802204442 19 265 0.0 9.7 0.00 0.00 0.00 65 1013.1
20200802204338 20 272 0.0 9.7 0.00 0.00 0.00 65 1013.1
20200802204231 20 272 0.0 9.7 0.00 0.00 0.00 65 1013.1
20200802204123 20 272 0.0 9.7 0.00 0.00 0.00 65 1013.1
20200802204017 20 272 0.0 9.7 0.00 0.00 0.00 65 1013.2
20200802203911 20 272 0.0 9.7 0.00 0.00 0.00 65 1013.2
20200802203807 20 272 0.0 9.7 0.00 0.00 0.00 64 1013.2
20200802203701 20 272 0.0 8.0 0.00 0.00 0.00 64 1013.1
20200802203557 20 272 0.0 8.0 0.00 0.00 0.00 64 1013.2
20200802203452 20 272 0.0 8.0 0.00 0.00 0.00 64 1013.1
20200802203348 20 272 0.0 8.0 0.00 0.00 0.00 64 1013.2
20200802203241 20 271 0.0 8.0 0.00 0.00 0.00 64 1013.2
20200802203135 20 271 0.0 8.0 0.00 0.00 0.00 64 1013.2
20200802203029 20 271 0.0 8.0 0.00 0.00 0.00 63 1013.2
20200802202925 20 280 0.0 8.0 0.00 0.00 0.00 63 1013.1
20200802202818 20 280 0.0 8.0 0.00 0.00 0.00 63 1013.1
20200802202711 20 282 0.0 0.0 0.00 0.00 0.00 63 1013.1
20200802202605 20 282 0.0 9.7 0.00 0.00 0.00 63 1013.1
20200802202459 20 282 0.0 9.7 0.00 0.00 0.00 62 1013.2
20200802202356 20 273 0.0 8.0 0.00 0.00 0.00 62 1013.2
20200802202254 20 273 0.0 4.8 0.00 0.00 0.00 62 1013.1
20200802202147 20 273 0.0 4.8 0.00 0.00 0.00 62 1013.1
20200802202042 20 273 0.0 0.0 0.00 0.00 0.00 62 1013.1
20200802201934 20 273 0.0 0.0 0.00 0.00 0.00 61 1013.1
20200802201828 20 273 0.0 9.7 0.00 0.00 0.00 61 1013.1
20200802201719 20 273 0.0 9.7 0.00 0.00 0.00 60 1013.1
20200802201612 20 274 1.6 9.7 0.00 0.00 0.00 60 1013.1
20200802201506 20 274 1.6 9.7 0.00 0.00 0.00 60 1013.1
20200802201402 20 274 0.0 9.7 0.00 0.00 0.00 59 1013.0
20200802201255 20 274 0.0 9.7 0.00 0.00 0.00 59 1013.0
20200802201149 20 274 0.0 9.7 0.00 0.00 0.00 59 1013.1
20200802201047 20 274 0.0 9.7 0.00 0.00 0.00 59 1013.0
20200802200945 20 274 0.0 9.7 0.00 0.00 0.00 59 1013.0
20200802200837 20 273 0.0 9.7 0.00 0.00 0.00 58 1013.0
20200802200735 20 270 0.0 9.7 0.00 0.00 0.00 58 1013.0
20200802200628 20 280 0.0 8.0 0.00 0.00 0.00 58 1013.0
20200802200523 20 295 0.0 4.8 0.00 0.00 0.00 56 1013.0
20200802200421 20 300 0.0 0.0 0.00 0.00 0.00 56 1013.0
20200802200313 20 300 0.0 0.0 0.00 0.00 0.00 55 1013.0
20200802200209 20 300 0.0 0.0 0.00 0.00 0.00 55 1013.0
20200802200103 20 300 0.0 0.0 0.00 0.00 0.00 55 1013.0
20200802195957 20 300 0.0 0.0 0.00 0.00 0.00 55 1013.0
20200802195852 20 300 0.0 0.0 0.00 0.00 0.00 55 1012.9
20200802195749 20 300 0.0 0.0 0.00 0.00 0.00 55 1013.0
20200802195646 20 300 0.0 0.0 0.00 0.00 0.00 55 1013.0
20200802195540 20 300 0.0 0.0 0.00 0.00 0.00 55 1012.9
20200802195435 20 300 0.0 0.0 0.00 0.00 0.00 54 1012.9
20200802195328 20 300 0.0 0.0 0.00 0.00 0.00 54 1012.9
20200802195221 20 300 0.0 0.0 0.00 0.00 0.00 54 1012.9
20200802195118 20 300 0.0 0.0 0.00 0.00 0.00 54 1012.8
20200802195011 20 300 0.0 0.0 0.00 0.00 0.00 54 1012.8
20200802194905 20 300 0.0 0.0 0.00 0.00 0.00 54 1012.8
20200802194759 20 300 0.0 0.0 0.00 0.00 0.00 54 1012.8
20200802194654 20 301 0.0 0.0 0.00 0.00 0.00 54 1012.7
20200802194549 20 301 0.0 0.0 0.00 0.00 0.00 54 1012.8
20200802194444 20 301 0.0 0.0 0.00 0.00 0.00 54 1012.8
20200802194340 20 301 0.0 0.0 0.00 0.00 0.00 54 1012.7
20200802194234 20 301 0.0 0.0 0.00 0.00 0.00 54 1012.8
20200802194128 20 301 0.0 0.0 0.00 0.00 0.00 54 1012.8
20200802194022 20 301 1.6 0.0 0.00 0.00 0.00 54 1012.7
20200802193915 20 301 1.6 0.0 0.00 0.00 0.00 54 1012.7
20200802193812 20 301 1.6 0.0 0.00 0.00 0.00 54 1012.7
20200802193705 20 301 1.6 6.4 0.00 0.00 0.00 54 1012.7
20200802193557 20 301 1.6 6.4 0.00 0.00 0.00 54 1012.7
20200802193455 20 301 1.6 6.4 0.00 0.00 0.00 53 1012.7
20200802193350 20 301 0.0 4.8 0.00 0.00 0.00 53 1012.7
20200802193246 20 303 0.0 4.8 0.00 0.00 0.00 53 1012.7
20200802193140 20 303 0.0 4.8 0.00 0.00 0.00 53 1012.8
20200802193032 21 304 0.0 4.8 0.00 0.00 0.00 53 1012.7
20200802192925 21 299 0.0 4.8 0.00 0.00 0.00 53 1012.7
20200802192821 21 297 0.0 4.8 0.00 0.00 0.00 53 1012.7
20200802192717 21 312 0.0 0.0 0.00 0.00 0.00 54 1012.8
20200802192609 21 313 0.0 4.8 0.00 0.00 0.00 53 1012.7
20200802192506 21 313 0.0 4.8 0.00 0.00 0.00 53 1012.8
20200802192359 21 293 0.0 4.8 0.00 0.00 0.00 53 1012.7
20200802192253 21 293 0.0 4.8 0.00 0.00 0.00 53 1012.7
20200802192149 21 293 0.0 4.8 0.00 0.00 0.00 53 1012.7
20200802192045 21 293 0.0 4.8 0.00 0.00 0.00 53 1012.8
20200802191937 21 286 0.0 0.0 0.00 0.00 0.00 53 1012.7
20200802191830 21 282 1.6 0.0 0.00 0.00 0.00 53 1012.7
20200802191727 21 278 1.6 0.0 0.00 0.00 0.00 53 1012.8
20200802191623 21 277 1.6 8.0 0.00 0.00 0.00 53 1012.7
20200802191519 21 276 1.6 8.0 0.00 0.00 0.00 52 1012.8
20200802191412 21 272 0.0 8.0 0.00 0.00 0.00 52 1012.8
20200802191305 21 289 0.0 8.0 0.00 0.00 0.00 52 1012.8
20200802191159 21 286 0.0 8.0 0.00 0.00 0.00 52 1012.7
20200802191055 21 286 0.0 8.0 0.00 0.00 0.00 52 1012.7
20200802190947 21 288 0.0 8.0 0.00 0.00 0.00 52 1012.7
20200802190840 21 274 0.0 8.0 0.00 0.00 0.00 52 1012.7
20200802190735 21 312 0.0 6.4 0.00 0.00 0.00 52 1012.7
20200802190627 21 295 1.6 0.0 0.00 0.00 0.00 52 1012.7
20200802190523 21 294 1.6 0.0 0.00 0.00 0.00 52 1012.7
20200802190417 21 294 1.6 0.0 0.00 0.00 0.00 52 1012.7
20200802190311 21 294 3.2 0.0 0.00 0.00 0.00 52 1012.7
20200802190208 21 294 3.2 9.7 0.00 0.00 0.00 52 1012.7
20200802190106 21 293 3.2 9.7 0.00 0.00 0.00 51 1012.7
20200802190003 21 292 3.2 9.7 0.00 0.00 0.00 51 1012.7
20200802185854 21 290 3.2 9.7 0.00 0.00 0.00 52 1012.7
20200802185747 21 314 3.2 9.7 0.00 0.00 0.00 52 1012.7
20200802185640 21 310 3.2 9.7 0.00 0.00 0.00 52 1012.7
20200802185537 21 296 3.2 9.7 0.00 0.00 0.00 52 1012.7
20200802185432 21 296 3.2 9.7 0.00 0.00 0.00 52 1012.6
20200802185330 21 293 3.2 9.7 0.00 0.00 0.00 52 1012.7
20200802185228 21 276 3.2 9.7 0.00 0.00 0.00 52 1012.7
20200802185124 21 284 3.2 9.7 0.00 0.00 0.00 52 1012.7
20200802185021 21 280 3.2 9.7 0.00 0.00 0.00 52 1012.6
20200802184915 21 299 3.2 9.7 0.00 0.00 0.00 52 1012.6
20200802184809 21 298 3.2 9.7 0.00 0.00 0.00 52 1012.7
20200802184703 21 316 3.2 9.7 0.00 0.00 0.00 52 1012.6
20200802184559 21 325 3.2 9.7 0.00 0.00 0.00 52 1012.7
20200802184455 21 332 3.2 9.7 0.00 0.00 0.00 51 1012.6
20200802184345 21 300 3.2 9.7 0.00 0.00 0.00 51 1012.7
20200802184242 21 300 3.2 9.7 0.00 0.00 0.00 51 1012.6
20200802184135 21 293 3.2 17.7 0.00 0.00 0.00 51 1012.6
20200802184033 21 284 3.2 17.7 0.00 0.00 0.00 51 1012.7
20200802183925 21 326 3.2 17.7 0.00 0.00 0.00 51 1012.7
20200802183822 21 284 3.2 17.7 0.00 0.00 0.00 51 1012.7
20200802183715 21 302 3.2 17.7 0.00 0.00 0.00 51 1012.7
20200802183611 21 301 3.2 17.7 0.00 0.00 0.00 51 1012.7
20200802183508 21 309 3.2 17.7 0.00 0.00 0.00 50 1012.7
20200802183404 21 307 3.2 17.7 0.00 0.00 0.00 51 1012.6
20200802183300 21 315 3.2 17.7 0.00 0.00 0.00 50 1012.7
20200802183156 21 306 4.8 17.7 0.00 0.00 0.00 50 1012.6
20200802183047 21 316 4.8 17.7 0.00 0.00 0.00 50 1012.6
20200802182944 21 276 6.4 17.7 0.00 0.00 0.00 50 1012.6
20200802182841 21 326 6.4 17.7 0.00 0.00 0.00 50 1012.6
20200802182739 21 288 6.4 17.7 0.00 0.00 0.00 50 1012.6
20200802182635 21 282 6.4 17.7 0.00 0.00 0.00 50 1012.6
20200802182528 21 311 6.4 17.7 0.00 0.00 0.00 50 1012.6
20200802182422 21 316 8.0 17.7 0.00 0.00 0.00 50 1012.6
20200802182316 21 319 8.0 17.7 0.00 0.00 0.00 50 1012.6
20200802182213 21 328 8.0 17.7 0.00 0.00 0.00 50 1012.6
20200802182106 22 324 6.4 16.1 0.00 0.00 0.00 50 1012.6
20200802182000 22 332 6.4 16.1 0.00 0.00 0.00 50 1012.6
20200802181857 22 351 6.4 16.1 0.00 0.00 0.00 50 1012.6
20200802181755 22 335 6.4 16.1 0.00 0.00 0.00 50 1012.6
20200802181647 22 317 6.4 16.1 0.00 0.00 0.00 50 1012.6
20200802181542 22 295 6.4 14.5 0.00 0.00 0.00 50 1012.6
20200802181436 22 330 6.4 14.5 0.00 0.00 0.00 50 1012.6
20200802181328 22 330 6.4 19.3 0.00 0.00 0.00 50 1012.6
20200802181225 22 292 6.4 19.3 0.00 0.00 0.00 50 1012.6
20200802181119 22 351 6.4 19.3 0.00 0.00 0.00 50 1012.6
20200802181016 22 309 6.4 19.3 0.00 0.00 0.00 50 1012.6
20200802180909 22 337 6.4 19.3 0.00 0.00 0.00 49 1012.6
20200802180803 22 276 6.4 19.3 0.00 0.00 0.00 49 1012.6
20200802180656 22 291 6.4 19.3 0.00 0.00 0.00 49 1012.6
20200802180550 22 328 6.4 19.3 0.00 0.00 0.00 49 1012.6
20200802180446 22 340 8.0 19.3 0.00 0.00 0.00 49 1012.6
20200802180342 22 316 8.0 19.3 0.00 0.00 0.00 49 1012.7
20200802180234 22 322 8.0 19.3 0.00 0.00 0.00 49 1012.7
20200802180132 22 285 8.0 19.3 0.00 0.00 0.00 48 1012.6
20200802180027 22 280 8.0 19.3 0.00 0.00 0.00 48 1012.7
20200802175920 22 303 8.0 19.3 0.00 0.00 0.00 48 1012.7
20200802175819 22 292 8.0 19.3 0.00 0.00 0.00 49 1012.6
20200802175714 22 301 8.0 19.3 0.00 0.00 0.00 49 1012.6
20200802175610 22 301 8.0 19.3 0.00 0.00 0.00 48 1012.6
20200802175507 22 285 8.0 19.3 0.00 0.00 0.00 48 1012.6
20200802175402 22 321 6.4 17.7 0.00 0.00 0.00 48 1012.6
20200802175257 22 328 6.4 16.1 0.00 0.00 0.00 48 1012.7
20200802175151 22 306 6.4 16.1 0.00 0.00 0.00 49 1012.7
20200802175045 22 264 6.4 16.1 0.00 0.00 0.00 48 1012.7
20200802174938 22 309 4.8 16.1 0.00 0.00 0.00 48 1012.7
20200802174832 22 313 4.8 16.1 0.00 0.00 0.00 48 1012.7
20200802174725 22 318 4.8 16.1 0.00 0.00 0.00 48 1012.6
20200802174618 22 285 4.8 16.1 0.00 0.00 0.00 48 1012.7
20200802174514 22 252 4.8 16.1 0.00 0.00 0.00 48 1012.6
20200802174408 22 289 4.8 16.1 0.00 0.00 0.00 47 1012.6
20200802174303 22 290 4.8 16.1 0.00 0.00 0.00 47 1012.7
20200802174157 22 302 6.4 16.1 0.00 0.00 0.00 47 1012.6
20200802174054 22 297 6.4 16.1 0.00 0.00 0.00 47 1012.6
20200802173949 22 315 6.4 16.1 0.00 0.00 0.00 47 1012.7
20200802173843 22 314 6.4 16.1 0.00 0.00 0.00 47 1012.7
20200802173738 22 320 8.0 16.1 0.00 0.00 0.00 46 1012.7
20200802173632 22 301 8.0 16.1 0.00 0.00 0.00 47 1012.7
20200802173527 22 307 8.0 16.1 0.00 0.00 0.00 46 1012.6
20200802173424 22 289 8.0 16.1 0.00 0.00 0.00 46 1012.7
20200802173322 22 287 8.0 16.1 0.00 0.00 0.00 46 1012.6
20200802173216 22 265 6.4 19.3 0.00 0.00 0.00 46 1012.7
20200802173109 22 289 6.4 19.3 0.00 0.00 0.00 46 1012.7
20200802173006 22 297 8.0 19.3 0.00 0.00 0.00 46 1012.7
20200802172901 22 295 6.4 19.3 0.00 0.00 0.00 46 1012.7
20200802172755 22 306 6.4 19.3 0.00 0.00 0.00 46 1012.7
20200802172652 22 312 6.4 19.3 0.00 0.00 0.00 46 1012.7
20200802172546 22 286 4.8 19.3 0.00 0.00 0.00 46 1012.7
20200802172443 22 289 6.4 19.3 0.00 0.00 0.00 46 1012.6
20200802172338 22 296 6.4 19.3 0.00 0.00 0.00 45 1012.7
20200802172234 22 284 6.4 19.3 0.00 0.00 0.00 45 1012.6
20200802172126 22 291 6.4 19.3 0.00 0.00 0.00 45 1012.6
20200802172020 22 271 6.4 19.3 0.00 0.00 0.00 45 1012.7
20200802171913 22 296 6.4 19.3 0.00 0.00 0.00 45 1012.7
20200802171806 22 266 6.4 19.3 0.00 0.00 0.00 45 1012.7
20200802171704 22 272 6.4 19.3 0.00 0.00 0.00 45 1012.7
20200802171559 22 278 6.4 19.3 0.00 0.00 0.00 45 1012.7
20200802171452 22 271 6.4 19.3 0.00 0.00 0.00 44 1012.7
20200802171347 22 276 4.8 19.3 0.00 0.00 0.00 45 1012.7
20200802171243 22 278 4.8 19.3 0.00 0.00 0.00 45 1012.7
20200802171141 22 291 6.4 17.7 0.00 0.00 0.00 45 1012.7
20200802171036 22 309 4.8 17.7 0.00 0.00 0.00 45 1012.6
20200802170928 22 304 4.8 17.7 0.00 0.00 0.00 44 1012.7
20200802170823 22 276 4.8 25.7 0.00 0.00 0.00 44 1012.6
20200802170715 22 266 6.4 25.7 0.00 0.00 0.00 44 1012.6
20200802170607 22 276 6.4 25.7 0.00 0.00 0.00 44 1012.7
20200802170503 22 274 8.0 25.7 0.00 0.00 0.00 44 1012.6
20200802170400 22 278 6.4 25.7 0.00 0.00 0.00 44 1012.6
20200802170253 22 311 6.4 25.7 0.00 0.00 0.00 44 1012.6
20200802170147 22 280 6.4 25.7 0.00 0.00 0.00 43 1012.6
20200802170043 22 268 8.0 25.7 0.00 0.00 0.00 43 1012.6
20200802165940 22 270 9.7 25.7 0.00 0.00 0.00 43 1012.6
20200802165836 22 299 9.7 25.7 0.00 0.00 0.00 43 1012.6
20200802165732 22 279 9.7 25.7 0.00 0.00 0.00 43 1012.7
20200802165630 22 262 9.7 25.7 0.00 0.00 0.00 43 1012.6
20200802165523 22 272 9.7 25.7 0.00 0.00 0.00 43 1012.6
20200802165416 22 272 9.7 25.7 0.00 0.00 0.00 43 1012.6
20200802165313 22 278 9.7 25.7 0.00 0.00 0.00 43 1012.7
20200802165211 22 247 9.7 25.7 0.00 0.00 0.00 43 1012.7
20200802165104 22 263 9.7 25.7 0.00 0.00 0.00 44 1012.7
20200802165002 22 291 9.7 25.7 0.00 0.00 0.00 43 1012.7
20200802164858 22 276 8.0 25.7 0.00 0.00 0.00 43 1012.6
20200802164753 22 274 8.0 19.3 0.00 0.00 0.00 43 1012.7
20200802164646 22 259 8.0 19.3 0.00 0.00 0.00 44 1012.7
20200802164541 22 303 8.0 19.3 0.00 0.00 0.00 43 1012.7
20200802164436 22 267 8.0 19.3 0.00 0.00 0.00 43 1012.8
20200802164332 22 270 8.0 19.3 0.00 0.00 0.00 43 1012.7
20200802164227 22 270 8.0 19.3 0.00 0.00 0.00 43 1012.7
20200802164123 22 259 6.4 19.3 0.00 0.00 0.00 43 1012.7
20200802164021 22 271 6.4 16.1 0.00 0.00 0.00 43 1012.7
20200802163917 22 273 6.4 24.1 0.00 0.00 0.00 43 1012.6
20200802163812 22 256 6.4 24.1 0.00 0.00 0.00 43 1012.8
20200802163706 22 263 6.4 24.1 0.00 0.00 0.00 43 1012.8
20200802163558 23 294 6.4 24.1 0.00 0.00 0.00 43 1012.8
20200802163453 23 263 6.4 24.1 0.00 0.00 0.00 43 1012.8
20200802163350 23 276 6.4 24.1 0.00 0.00 0.00 43 1012.8
20200802163247 23 274 8.0 24.1 0.00 0.00 0.00 42 1012.8
20200802163141 23 274 8.0 24.1 0.00 0.00 0.00 42 1012.8
20200802163033 23 260 8.0 24.1 0.00 0.00 0.00 42 1012.9
20200802162927 23 261 8.0 24.1 0.00 0.00 0.00 42 1012.8
20200802162823 23 249 9.7 24.1 0.00 0.00 0.00 42 1012.9
20200802162717 23 279 9.7 24.1 0.00 0.00 0.00 42 1012.9
20200802162614 23 274 9.7 24.1 0.00 0.00 0.00 42 1012.8
20200802162510 23 259 9.7 24.1 0.00 0.00 0.00 42 1012.9
20200802162404 23 281 9.7 24.1 0.00 0.00 0.00 42 1012.9
20200802162256 23 268 8.0 24.1 0.00 0.00 0.00 42 1012.9
20200802162148 23 277 8.0 24.1 0.00 0.00 0.00 42 1012.8
20200802162047 23 307 8.0 24.1 0.00 0.00 0.00 42 1012.8
20200802161944 23 272 8.0 24.1 0.00 0.00 0.00 42 1012.8
20200802161838 23 323 8.0 20.9 0.00 0.00 0.00 43 1012.9
20200802161734 23 331 8.0 20.9 0.00 0.00 0.00 43 1012.9
20200802161628 23 261 8.0 20.9 0.00 0.00 0.00 43 1012.9
20200802161524 23 280 8.0 20.9 0.00 0.00 0.00 43 1012.8
20200802161416 23 305 8.0 17.7 0.00 0.00 0.00 44 1012.8
20200802161313 23 299 8.0 17.7 0.00 0.00 0.00 42 1012.8
20200802161207 23 275 8.0 17.7 0.00 0.00 0.00 42 1012.9
20200802161103 23 268 8.0 17.7 0.00 0.00 0.00 42 1012.9
20200802161000 23 260 8.0 17.7 0.00 0.00 0.00 42 1012.9
20200802160856 23 279 8.0 17.7 0.00 0.00 0.00 42 1012.9
20200802160751 23 276 8.0 17.7 0.00 0.00 0.00 42 1013.0
20200802160648 23 263 6.4 17.7 0.00 0.00 0.00 43 1013.0
20200802160541 23 263 6.4 17.7 0.00 0.00 0.00 45 1013.0
20200802160437 23 281 6.4 17.7 0.00 0.00 0.00 43 1013.0
20200802160332 23 264 6.4 17.7 0.00 0.00 0.00 42 1013.0
20200802160228 23 272 4.8 16.1 0.00 0.00 0.00 42 1013.1
20200802160124 23 245 4.8 14.5 0.00 0.00 0.00 43 1013.1
20200802160022 23 261 4.8 14.5 0.00 0.00 0.00 43 1013.0
20200802155915 23 292 3.2 14.5 0.00 0.00 0.00 43 1013.0
20200802155812 23 277 3.2 19.3 0.00 0.00 0.00 44 1013.0
20200802155706 23 216 4.8 19.3 0.00 0.00 0.00 44 1013.1
20200802155604 23 268 4.8 19.3 0.00 0.00 0.00 44 1013.1
20200802155458 23 311 4.8 19.3 0.00 0.00 0.00 44 1013.1
20200802155355 23 270 4.8 19.3 0.00 0.00 0.00 44 1013.1
20200802155248 23 273 4.8 19.3 0.00 0.00 0.00 45 1013.1
20200802155143 23 270 6.4 19.3 0.00 0.00 0.00 45 1013.1
20200802155036 23 276 6.4 19.3 0.00 0.00 0.00 45 1013.1
20200802154934 23 285 6.4 19.3 0.00 0.00 0.00 45 1013.1
20200802154826 23 294 6.4 19.3 0.00 0.00 0.00 44 1013.1
20200802154724 23 257 6.4 19.3 0.00 0.00 0.00 44 1013.1
20200802154618 23 264 4.8 19.3 0.00 0.00 0.00 44 1013.1
20200802154510 23 294 4.8 19.3 0.00 0.00 0.00 45 1013.1
20200802154407 23 297 4.8 19.3 0.00 0.00 0.00 45 1013.1
20200802154304 23 274 3.2 19.3 0.00 0.00 0.00 46 1013.1
20200802154159 23 268 4.8 19.3 0.00 0.00 0.00 45 1013.2
20200802154053 23 246 4.8 19.3 0.00 0.00 0.00 45 1013.1
20200802153947 23 237 4.8 19.3 0.00 0.00 0.00 45 1013.1
20200802153844 23 195 4.8 19.3 0.00 0.00 0.00 46 1013.2
20200802153739 23 243 6.4 19.3 0.00 0.00 0.00 47 1013.1
20200802153637 23 207 6.4 19.3 0.00 0.00 0.00 47 1013.2
20200802153530 23 206 6.4 19.3 0.00 0.00 0.00 47 1013.2
20200802153425 22 265 6.4 19.3 0.00 0.00 0.00 47 1013.2
20200802153319 22 265 6.4 19.3 0.00 0.00 0.00 47 1013.2
20200802153211 22 265 6.4 19.3 0.00 0.00 0.00 48 1013.2
20200802153109 22 270 6.4 19.3 0.00 0.00 0.00 49 1013.2
20200802153001 22 305 4.8 19.3 0.00 0.00 0.00 49 1013.2
20200802152856 22 253 4.8 19.3 0.00 0.00 0.00 49 1013.2
20200802152751 22 239 4.8 16.1 0.00 0.00 0.00 50 1013.2
20200802152648 22 326 6.4 16.1 0.00 0.00 0.00 50 1013.3
20200802152544 22 131 6.4 16.1 0.00 0.00 0.00 50 1013.3
20200802152437 22 283 6.4 16.1 0.00 0.00 0.00 50 1013.3
20200802152333 22 324 6.4 16.1 0.00 0.00 0.00 51 1013.3
20200802152225 22 313 6.4 16.1 0.00 0.00 0.00 51 1013.3
20200802152122 22 265 6.4 17.7 0.00 0.00 0.00 50 1013.3
20200802152015 22 284 8.0 17.7 0.00 0.00 0.00 49 1013.4
20200802151912 22 253 8.0 17.7 0.00 0.00 0.00 50 1013.4
20200802151805 22 298 8.0 17.7 0.00 0.00 0.00 50 1013.4
20200802151700 22 288 6.4 17.7 0.00 0.00 0.00 50 1013.4
20200802151557 22 272 8.0 17.7 0.00 0.00 0.00 50 1013.4
20200802151452 22 274 8.0 17.7 0.00 0.00 0.00 50 1013.5
20200802151345 22 295 8.0 17.7 0.00 0.00 0.00 50 1013.4
20200802151242 22 268 8.0 17.7 0.00 0.00 0.00 50 1013.4
20200802151138 22 296 8.0 19.3 0.00 0.00 0.00 50 1013.4
20200802151034 22 297 8.0 19.3 0.00 0.00 0.00 49 1013.5
20200802150931 22 274 8.0 19.3 0.00 0.00 0.00 50 1013.5
20200802150824 22 267 8.0 19.3 0.00 0.00 0.00 50 1013.5
20200802150720 22 297 8.0 19.3 0.00 0.00 0.00 50 1013.5
20200802150618 22 274 9.7 19.3 0.00 0.00 0.00 50 1013.5
20200802150514 22 289 9.7 19.3 0.00 0.00 0.00 50 1013.5
20200802150410 22 262 9.7 19.3 0.00 0.00 0.00 49 1013.5
20200802150303 22 268 9.7 19.3 0.00 0.00 0.00 49 1013.5
20200802150156 22 280 9.7 20.9 0.00 0.00 0.00 49 1013.5
20200802150052 22 324 9.7 20.9 0.00 0.00 0.00 48 1013.5
20200802145947 22 268 9.7 20.9 0.00 0.00 0.00 48 1013.4
20200802145843 22 268 9.7 20.9 0.00 0.00 0.00 48 1013.4
20200802145738 22 258 9.7 20.9 0.00 0.00 0.00 47 1013.5
20200802145631 22 268 11.3 20.9 0.00 0.00 0.00 48 1013.5